Index of /rasp-hd-d0/FCST

[ICO]NameLast modifiedSizeDescription

[PARENTDIR]Parent Directory  -  
[IMG]previous.bltopwind.curr.loop.d2.gif2020-06-02 05:59 905K 
[IMG]previous.blwind.curr.loop.d2.gif2020-06-02 05:58 879K 
[IMG]previous.zblcl.curr.loop.d2.gif2020-06-02 05:58 849K 
[IMG]previous.sfcwind.curr.loop.d2.gif2020-06-02 05:58 849K 
[IMG]previous.zblcldif.curr.loop.d2.gif2020-06-02 05:59 804K 
[IMG]bltopwind.curr.loop.d2.gif2020-06-03 06:02 785K 
[IMG]blwind.curr.loop.d2.gif2020-06-03 06:02 776K 
[IMG]zblcl.curr.loop.d2.gif2020-06-03 06:02 774K 
[IMG]zblcldif.curr.loop.d2.gif2020-06-03 06:02 750K 
[IMG]sfcwind.curr.loop.d2.gif2020-06-03 06:02 748K 
[IMG]previous.zsfclcl.curr.loop.d2.gif2020-06-02 05:58 656K 
[IMG]sfctemp.curr.loop.d2.gif2020-06-03 06:02 646K 
[IMG]hbl.curr.loop.d2.gif2020-06-03 06:02 644K 
[IMG]previous.sfctemp.curr.loop.d2.gif2020-06-02 05:59 637K 
[IMG]previous.press500.curr.loop.d2.gif2020-06-02 05:59 637K 
[IMG]previous.bltopvariab.curr.loop.d2.gif2020-06-02 05:59 621K 
[IMG]previous.hbl.curr.loop.d2.gif2020-06-02 05:58 608K 
[IMG]previous.press700.curr.loop.d2.gif2020-06-02 05:59 608K 
[IMG]previous.zsfclcldif.curr.loop.d2.gif2020-06-02 05:58 605K 
[IMG]blcloudpct.curr.loop.d2.gif2020-06-03 06:02 598K 
[IMG]zsfclcl.curr.loop.d2.gif2020-06-03 06:02 597K 
[IMG]previous.press850.curr.loop.d2.gif2020-06-02 05:59 584K 
[IMG]previous.sfcdewpt.curr.loop.d2.gif2020-06-02 05:59 580K 
[IMG]sfcdewpt.curr.loop.d2.gif2020-06-03 06:02 563K 
[IMG]bltopvariab.curr.loop.d2.gif2020-06-03 06:02 558K 
[IMG]hwcrit.curr.loop.d2.gif2020-06-03 06:02 557K 
[IMG]zsfclcldif.curr.loop.d2.gif2020-06-03 06:02 554K 
[IMG]previous.hwcrit.curr.loop.d2.gif2020-06-02 05:58 549K 
[IMG]press500.curr.loop.d2.gif2020-06-03 06:02 522K 
[IMG]blwindshear.curr.loop.d2.gif2020-06-03 06:02 519K 
[IMG]sfcshf.curr.loop.d2.gif2020-06-03 06:02 512K 
[IMG]sfcsunpct.curr.loop.d2.gif2020-06-03 06:02 511K 
[IMG]dbl.curr.loop.d2.gif2020-06-03 06:02 503K 
[IMG]previous.blwindshear.curr.loop.d2.gif2020-06-02 05:59 498K 
[IMG]press700.curr.loop.d2.gif2020-06-03 06:02 497K 
[IMG]previous.dbl.curr.loop.d2.gif2020-06-02 05:58 491K 
[IMG]previous.sfcshf.curr.loop.d2.gif2020-06-02 05:58 485K 
[IMG]wblmaxmin.curr.loop.d2.gif2020-06-03 06:02 483K 
[IMG]press850.curr.loop.d2.gif2020-06-03 06:02 479K 
[IMG]bsratio.curr.loop.d2.gif2020-06-03 06:02 473K 
[IMG]previous.sfcsunpct.curr.loop.d2.gif2020-06-02 05:58 468K 
[IMG]previous.press925.curr.loop.d2.gif2020-06-02 05:59 458K 
[IMG]previous.wblmaxmin.curr.loop.d2.gif2020-06-02 05:59 450K 
[IMG]previous.blcloudpct.curr.loop.d2.gif2020-06-02 05:59 434K 
[IMG]zwblmaxmin.curr.loop.d2.gif2020-06-03 06:02 430K 
[IMG]press925.curr.loop.d2.gif2020-06-03 06:02 429K 
[IMG]wstar_bsratio.curr.loop.d2.gif2020-06-03 06:02 427K 
[IMG]previous.wstar_bsratio.curr.loop.d2.gif2020-06-02 05:59 422K 
[IMG]previous.zwblmaxmin.curr.loop.d2.gif2020-06-02 05:59 401K 
[IMG]dwcrit.curr.loop.d2.gif2020-06-03 06:02 395K 
[IMG]previous.boxwmax.curr.loop.d2.gif2020-06-02 05:59 389K 
[IMG]previous.bsratio.curr.loop.d2.gif2020-06-02 05:58 388K 
[IMG]cape.curr.loop.d2.gif2020-06-03 06:02 380K 
[IMG]previous.sounding10.curr.loop.d2.gif2020-06-02 05:59 373K 
[IMG]previous.sounding1.curr.loop.d2.gif2020-06-02 05:59 372K 
[IMG]previous.sounding4.curr.loop.d2.gif2020-06-02 05:59 372K 
[IMG]previous.sounding6.curr.loop.d2.gif2020-06-02 05:59 372K 
[IMG]previous.sounding2.curr.loop.d2.gif2020-06-02 05:59 371K 
[IMG]previous.sounding3.curr.loop.d2.gif2020-06-02 05:59 371K 
[IMG]previous.sounding5.curr.loop.d2.gif2020-06-02 05:59 371K 
[IMG]previous.sounding7.curr.loop.d2.gif2020-06-02 05:59 369K 
[IMG]previous.sounding8.curr.loop.d2.gif2020-06-02 05:59 369K 
[IMG]sounding4.curr.loop.d2.gif2020-06-03 06:02 369K 
[IMG]sounding5.curr.loop.d2.gif2020-06-03 06:02 369K 
[IMG]sounding1.curr.loop.d2.gif2020-06-03 06:02 369K 
[IMG]sounding3.curr.loop.d2.gif2020-06-03 06:02 369K 
[IMG]sounding2.curr.loop.d2.gif2020-06-03 06:02 369K 
[IMG]sounding8.curr.loop.d2.gif2020-06-03 06:02 368K 
[IMG]sounding10.curr.loop.d2.gif2020-06-03 06:02 368K 
[IMG]sounding6.curr.loop.d2.gif2020-06-03 06:02 368K 
[IMG]sounding9.curr.loop.d2.gif2020-06-03 06:02 368K 
[IMG]sounding7.curr.loop.d2.gif2020-06-03 06:02 367K 
[IMG]previous.sounding9.curr.loop.d2.gif2020-06-02 05:59 366K 
[IMG]wstar.curr.loop.d2.gif2020-06-03 06:02 364K 
[IMG]previous.wstar.curr.loop.d2.gif2020-06-02 05:58 357K 
[IMG]previous.cape.curr.loop.d2.gif2020-06-02 05:59 349K 
[IMG]boxwmax.curr.loop.d2.gif2020-06-03 06:02 337K 
[IMG]zsfclclmask.curr.loop.d2.gif2020-06-03 06:02 317K 
[IMG]zblclmask.curr.loop.d2.gif2020-06-03 06:02 315K 
[IMG]previous.dwcrit.curr.loop.d2.gif2020-06-02 05:58 306K 
[IMG]blcwbase.curr.loop.d2.gif2020-06-03 06:02 289K 
[IMG]previous.blcwbase.curr.loop.d2.gif2020-06-02 05:59 284K 
[IMG]previous.zsfclclmask.curr.loop.d2.gif2020-06-02 05:58 278K 
[IMG]previous.zblclmask.curr.loop.d2.gif2020-06-02 05:59 277K 
[IMG]previous.bltopwind.curr.1400lst.d2.png2020-06-02 05:55 161K 
[IMG]previous.bltopwind.curr.1100lst.d2.png2020-06-02 05:48 156K 
[IMG]previous.blwind.curr.1400lst.d2.png2020-06-02 05:55 152K 
[IMG]previous.blwind.curr.1100lst.d2.png2020-06-02 05:48 144K 
[IMG]bltopwind.curr.1700lst.d2.png2020-06-03 06:01 142K 
[IMG]previous.sfcwind.curr.0500lst.d2.png2020-06-02 05:40 140K 
[IMG]previous.bltopwind.curr.0500lst.d2.png2020-06-02 05:40 139K 
[IMG]previous.blwind.curr.0500lst.d2.png2020-06-02 05:40 139K 
[IMG]blwind.curr.1700lst.d2.png2020-06-03 06:01 138K 
[IMG]previous.sfcwind.curr.0800lst.d2.png2020-06-02 05:44 137K 
[IMG]previous.bltopwind.curr.1400lst.w2.png2020-06-02 06:37 136K 
[IMG]previous.blwind.curr.0800lst.d2.png2020-06-02 05:44 136K 
[IMG]previous.sfcwind.curr.1400lst.d2.png2020-06-02 05:55 136K 
[IMG]bltopwind.curr.1100lst.d2.png2020-06-03 05:50 136K 
[IMG]previous.sfcwind.curr.1100lst.d2.png2020-06-02 05:48 135K 
[IMG]previous.bltopwind.curr.0800lst.d2.png2020-06-02 05:44 135K 
[IMG]previous.bltopwind.curr.1700lst.d2.png2020-06-02 05:58 135K 
[IMG]previous.blwind.curr.1700lst.d2.png2020-06-02 05:58 133K 
[IMG]previous.sfcwind.curr.1700lst.d2.png2020-06-02 05:58 133K 
[IMG]bltopwind.curr.1400lst.d2.png2020-06-03 05:55 132K 
[IMG]sfcwind.curr.1700lst.d2.png2020-06-03 06:01 130K 
[IMG]blwind.curr.1100lst.d2.png2020-06-03 05:50 129K 
[IMG]previous.zblcl.curr.1100lst.d2.png2020-06-02 05:48 128K 
[IMG]blwind.curr.1400lst.d2.png2020-06-03 05:55 128K 
[IMG]previous.blwind.curr.1400lst.w2.png2020-06-02 06:37 128K 
[IMG]previous.press700.curr.1400lst.w2.png2020-06-02 06:37 127K 
[IMG]previous.zblcldif.curr.1100lst.d2.png2020-06-02 05:48 127K 
[IMG]previous.press850.curr.1700lst.w2.png2020-06-02 06:53 126K 
[IMG]bltopwind.curr.1700lst.w2.png2020-06-03 06:53 126K 
[IMG]previous.bltopwind.curr.1100lst.w2.png2020-06-02 06:21 125K 
[IMG]previous.press500.curr.1400lst.d2.png2020-06-02 05:55 125K 
[IMG]previous.zblcldif.curr.1400lst.d2.png2020-06-02 05:55 125K 
[IMG]previous.press850.curr.1400lst.w2.png2020-06-02 06:37 125K 
[IMG]previous.press700.curr.1700lst.w2.png2020-06-02 06:53 125K 
[IMG]previous.press500.curr.1700lst.d2.png2020-06-02 05:58 125K 
[IMG]blwindshear.curr.1100lst.w2.png2020-06-03 06:18 124K 
[IMG]previous.zblcl.curr.1400lst.d2.png2020-06-02 05:55 124K 
[IMG]previous.zblcl.curr.1700lst.d2.png2020-06-02 05:58 123K 
[IMG]blwindshear.curr.1400lst.d2.png2020-06-03 05:55 122K 
[IMG]blwind.curr.1700lst.w2.png2020-06-03 06:53 122K 
[IMG]previous.press500.curr.1100lst.d2.png2020-06-02 05:48 122K 
[IMG]sfcwind.curr.0800lst.d2.png2020-06-03 05:43 121K 
[IMG]previous.press700.curr.1400lst.d2.png2020-06-02 05:55 121K 
[IMG]previous.press700.curr.1700lst.d2.png2020-06-02 05:58 121K 
[IMG]previous.bltopvariab.curr.1100lst.d2.png2020-06-02 05:48 120K 
[IMG]previous.press850.curr.1100lst.w2.png2020-06-02 06:21 120K 
[IMG]previous.blwind.curr.1100lst.w2.png2020-06-02 06:21 120K 
[IMG]sfcwind.curr.0500lst.d2.png2020-06-03 05:39 120K 
[IMG]previous.press500.curr.0800lst.d2.png2020-06-02 05:44 119K 
[IMG]previous.zblcldif.curr.1700lst.d2.png2020-06-02 05:58 119K 
[IMG]previous.press700.curr.1100lst.w2.png2020-06-02 06:21 119K 
[IMG]sfcwind.curr.1100lst.d2.png2020-06-03 05:50 119K 
[IMG]bltopwind.curr.0500lst.d2.png2020-06-03 05:39 119K 
[IMG]blwind.curr.0800lst.d2.png2020-06-03 05:43 119K 
[IMG]blwind.curr.0500lst.d2.png2020-06-03 05:39 119K 
[IMG]bltopwind.curr.0800lst.d2.png2020-06-03 05:43 119K 
[IMG]previous.press700.curr.0800lst.d2.png2020-06-02 05:44 119K 
[IMG]dwcrit.curr.1400lst.d2.png2020-06-03 05:55 118K 
[IMG]zblcldif.curr.1400lst.d2.png2020-06-03 05:55 118K 
[IMG]previous.press700.curr.1100lst.d2.png2020-06-02 05:48 118K 
[IMG]previous.blwindshear.curr.1100lst.d2.png2020-06-02 05:48 117K 
[IMG]sfcwind.curr.1400lst.d2.png2020-06-03 05:55 117K 
[IMG]zblcldif.curr.1700lst.d2.png2020-06-03 06:01 117K 
[IMG]zblcldif.curr.1100lst.d2.png2020-06-03 05:50 117K 
[IMG]previous.sfcwind.curr.1400lst.w2.png2020-06-02 06:37 116K 
[IMG]sfctemp.curr.0500lst.d2.png2020-06-03 05:39 116K 
[IMG]previous.zblcl.curr.0800lst.d2.png2020-06-02 05:44 116K 
[IMG]previous.press850.curr.1400lst.d2.png2020-06-02 05:55 116K 
[IMG]zblcl.curr.1700lst.d2.png2020-06-03 06:01 115K 
[IMG]zblcl.curr.1100lst.d2.png2020-06-03 05:50 115K 
[IMG]zblcl.curr.1400lst.d2.png2020-06-03 05:55 115K 
[IMG]previous.press850.curr.1700lst.d2.png2020-06-02 05:58 114K 
[   ]previous.zblcldif.curr.1100lst.w2.data2020-06-02 06:20 114K 
[IMG]previous.bltopwind.curr.1700lst.w2.png2020-06-02 06:53 113K 
[IMG]previous.press850.curr.1100lst.d2.png2020-06-02 05:48 112K 
[   ]previous.zblcldif.curr.1400lst.w2.data2020-06-02 06:36 112K 
[IMG]previous.zblcldif.curr.0800lst.d2.png2020-06-02 05:44 112K 
[IMG]sfcwind.curr.1700lst.w2.png2020-06-03 06:53 112K 
[IMG]blcloudpct.curr.1700lst.d2.png2020-06-03 06:01 112K 
[IMG]previous.blwind.curr.1700lst.w2.png2020-06-02 06:53 112K 
[IMG]previous.press850.curr.0800lst.d2.png2020-06-02 05:44 111K 
[IMG]previous.bltopvariab.curr.0500lst.d2.png2020-06-02 05:40 111K 
[IMG]bltopvariab.curr.1700lst.d2.png2020-06-03 06:01 111K 
[IMG]previous.sfcwind.curr.1700lst.w2.png2020-06-02 06:53 111K 
[IMG]dbl.curr.1400lst.d2.png2020-06-03 05:54 110K 
[IMG]previous.sfctemp.curr.1100lst.d2.png2020-06-02 05:48 110K 
[IMG]blwind.curr.1400lst.w2.png2020-06-03 06:37 110K 
[IMG]bltopwind.curr.1400lst.w2.png2020-06-03 06:37 109K 
[   ]previous.zblcldif.curr.1700lst.w2.data2020-06-02 06:52 109K 
[IMG]blcloudpct.curr.1100lst.d2.png2020-06-03 05:50 109K 
[IMG]previous.dbl.curr.1400lst.d2.png2020-06-02 05:54 109K 
[IMG]blwindshear.curr.1100lst.d2.png2020-06-03 05:50 109K 
[IMG]previous.sfcwind.curr.1100lst.w2.png2020-06-02 06:21 109K 
[IMG]bltopwind.curr.1100lst.w2.png2020-06-03 06:18 108K 
[IMG]zblcl.curr.0800lst.d2.png2020-06-03 05:43 108K 
[IMG]previous.press500.curr.1400lst.w2.png2020-06-02 06:37 107K 
[IMG]previous.dbl.curr.1100lst.d2.png2020-06-02 05:48 106K 
[IMG]previous.bltopvariab.curr.1700lst.d2.png2020-06-02 05:58 106K 
[IMG]sfctemp.curr.1100lst.d2.png2020-06-03 05:50 105K 
[IMG]press500.curr.0800lst.d2.png2020-06-03 05:43 105K 
[IMG]blwind.curr.1100lst.w2.png2020-06-03 06:18 105K 
[IMG]zblcldif.curr.0800lst.d2.png2020-06-03 05:43 105K 
[IMG]wblmaxmin.curr.1100lst.d2.png2020-06-03 05:50 105K 
[IMG]previous.press500.curr.1700lst.w2.png2020-06-02 06:53 105K 
[IMG]bsratio.curr.1100lst.d2.png2020-06-03 05:50 104K 
[IMG]bsratio.curr.1400lst.d2.png2020-06-03 05:55 104K 
[IMG]previous.sfctemp.curr.0800lst.d2.png2020-06-02 05:44 103K 
[IMG]blwindshear.curr.1400lst.w2.png2020-06-03 06:37 102K 
[IMG]blcloudpct.curr.0800lst.d2.png2020-06-03 05:43 101K 
[IMG]blcloudpct.curr.1400lst.d2.png2020-06-03 05:55 101K 
[IMG]hbl.curr.1100lst.d2.png2020-06-03 05:50 101K 
[IMG]sfcwind.curr.1400lst.w2.png2020-06-03 06:37 101K 
[IMG]blcloudpct.curr.1100lst.w2.png2020-06-03 06:18 100K 
[IMG]previous.press500.curr.1100lst.w2.png2020-06-02 06:21 100K 
[IMG]sfcshf.curr.1100lst.d2.png2020-06-03 05:50 100K 
[IMG]sfcsunpct.curr.1400lst.d2.png2020-06-03 05:55 100K 
[IMG]dbl.curr.1100lst.d2.png2020-06-03 05:50 100K 
[IMG]sfcdewpt.curr.1700lst.d2.png2020-06-03 06:02 100K 
[IMG]previous.zblcldif.curr.1400lst.w2.png2020-06-02 06:37 99K 
[IMG]sfctemp.curr.1400lst.d2.png2020-06-03 05:55 99K 
[IMG]previous.zblcl.curr.1100lst.w2.png2020-06-02 06:21 99K 
[   ]previous.zsfclcldif.curr.1100lst.w2.data2020-06-02 06:20 99K 
[IMG]previous.zblcl.curr.1700lst.w2.png2020-06-02 06:53 99K 
[IMG]zblcl.curr.0500lst.d2.png2020-06-03 05:39 99K 
[IMG]wblmaxmin.curr.0800lst.d2.png2020-06-03 05:43 98K 
[   ]previous.zblcl.curr.1100lst.w2.data2020-06-02 06:20 98K 
[   ]previous.zsfclcldif.curr.1400lst.w2.data2020-06-02 06:36 98K 
[IMG]previous.press925.curr.1700lst.w2.png2020-06-02 06:53 98K 
[IMG]previous.zblcldif.curr.1100lst.w2.png2020-06-02 06:21 98K 
[   ]previous.zblcl.curr.1400lst.w2.data2020-06-02 06:36 98K 
[IMG]sfcshf.curr.1100lst.w2.png2020-06-03 06:18 98K 
[   ]previous.zsfclcldif.curr.1700lst.w2.data2020-06-02 06:52 98K 
[   ]zblcldif.curr.1700lst.w2.data2020-06-03 06:53 97K 
[IMG]press500.curr.1100lst.d2.png2020-06-03 05:50 97K 
[IMG]sfcsunpct.curr.1100lst.d2.png2020-06-03 05:50 97K 
[IMG]hbl.curr.1700lst.d2.png2020-06-03 06:01 97K 
[IMG]previous.press925.curr.1400lst.w2.png2020-06-02 06:37 97K 
[IMG]blcloudpct.curr.1700lst.w2.png2020-06-03 06:53 97K 
[IMG]press500.curr.1400lst.d2.png2020-06-03 05:55 96K 
[IMG]previous.zblcl.curr.1400lst.w2.png2020-06-02 06:37 96K 
[IMG]sfcshf.curr.1700lst.d2.png2020-06-03 06:01 95K 
[IMG]sfcwind.curr.1100lst.w2.png2020-06-03 06:18 95K 
[IMG]bsratio.curr.1100lst.w2.png2020-06-03 06:18 95K 
[IMG]previous.zsfclcl.curr.0800lst.d2.png2020-06-02 05:44 95K 
[IMG]previous.zblcldif.curr.1700lst.w2.png2020-06-02 06:53 95K 
[   ]previous.zblcl.curr.1700lst.w2.data2020-06-02 06:52 95K 
[IMG]previous.blwindshear.curr.1400lst.d2.png2020-06-02 05:55 94K 
[   ]zblcldif.curr.1100lst.w2.data2020-06-03 06:17 94K 
[IMG]wblmaxmin.curr.1400lst.d2.png2020-06-03 05:55 94K 
[IMG]previous.press925.curr.1100lst.w2.png2020-06-02 06:21 94K 
[IMG]press700.curr.1100lst.d2.png2020-06-03 05:50 94K 
[IMG]sfcsunpct.curr.1700lst.d2.png2020-06-03 06:01 93K 
[IMG]press700.curr.1400lst.d2.png2020-06-03 05:55 93K 
[IMG]previous.zblcl.curr.0500lst.d2.png2020-06-02 05:40 93K 
[IMG]bltopvariab.curr.1100lst.d2.png2020-06-03 05:50 93K 
[IMG]press500.curr.1700lst.d2.png2020-06-03 06:01 92K 
[   ]zsfclcldif.curr.1700lst.w2.data2020-06-03 06:53 92K 
[IMG]press700.curr.0800lst.d2.png2020-06-03 05:43 92K 
[IMG]previous.wstar_bsratio.curr.1400lst.d2.png2020-06-02 05:55 92K 
[   ]zblcldif.curr.1400lst.w2.data2020-06-03 06:36 91K 
[IMG]previous.zsfclcl.curr.0500lst.d2.png2020-06-02 05:40 91K 
[IMG]previous.sfcshf.curr.0800lst.d2.png2020-06-02 05:44 91K 
[IMG]zblcldif.curr.1100lst.w2.png2020-06-03 06:18 91K 
[IMG]previous.wblmaxmin.curr.1100lst.d2.png2020-06-02 05:48 91K 
[IMG]zblcldif.curr.0500lst.d2.png2020-06-03 05:39 91K 
[IMG]previous.sfcshf.curr.1400lst.d2.png2020-06-02 05:55 91K 
[IMG]zblcldif.curr.1700lst.w2.png2020-06-03 06:53 91K 
[IMG]bltopvariab.curr.0500lst.d2.png2020-06-03 05:39 90K 
[IMG]previous.zsfclcl.curr.1100lst.d2.png2020-06-02 05:48 90K 
[IMG]previous.wblmaxmin.curr.0800lst.d2.png2020-06-02 05:44 90K 
[IMG]previous.wblmaxmin.curr.1400lst.d2.png2020-06-02 05:55 90K 
[IMG]bltopvariab.curr.1700lst.w2.png2020-06-03 06:53 90K 
[IMG]previous.sfcdewpt.curr.1700lst.d2.png2020-06-02 05:58 90K 
[IMG]press850.curr.1100lst.d2.png2020-06-03 05:50 89K 
[IMG]previous.hbl.curr.1100lst.d2.png2020-06-02 05:48 89K 
[IMG]zblcldif.curr.1400lst.w2.png2020-06-03 06:37 89K 
[IMG]press700.curr.1700lst.d2.png2020-06-03 06:01 89K 
[IMG]dbl.curr.1400lst.w2.png2020-06-03 06:37 89K 
[IMG]blcloudpct.curr.1400lst.w2.png2020-06-03 06:37 89K 
[   ]zblcl.curr.1100lst.w2.data2020-06-03 06:17 89K 
[IMG]previous.hbl.curr.1400lst.d2.png2020-06-02 05:54 89K 
[IMG]previous.zsfclcldif.curr.0800lst.d2.png2020-06-02 05:44 89K 
[IMG]hbl.curr.1400lst.d2.png2020-06-03 05:54 89K 
[IMG]zwblmaxmin.curr.1400lst.d2.png2020-06-03 05:55 89K 
[   ]zblcl.curr.1400lst.w2.data2020-06-03 06:36 89K 
[IMG]sfcshf.curr.1400lst.d2.png2020-06-03 05:55 89K 
[IMG]bltopvariab.curr.1400lst.d2.png2020-06-03 05:55 88K 
[IMG]zblcl.curr.1400lst.w2.png2020-06-03 06:37 88K 
[IMG]press850.curr.1400lst.d2.png2020-06-03 05:55 88K 
[IMG]press850.curr.1700lst.d2.png2020-06-03 06:01 88K 
[IMG]wblmaxmin.curr.1400lst.w2.png2020-06-03 06:37 88K 
[IMG]zblcl.curr.1100lst.w2.png2020-06-03 06:18 88K 
[IMG]previous.zsfclcl.curr.1400lst.d2.png2020-06-02 05:55 87K 
[IMG]previous.sfctemp.curr.0500lst.d2.png2020-06-02 05:40 87K 
[IMG]dbl.curr.1100lst.w2.png2020-06-03 06:18 87K 
[IMG]press850.curr.0800lst.d2.png2020-06-03 05:43 87K 
[IMG]previous.bltopvariab.curr.1400lst.d2.png2020-06-02 05:55 87K 
[   ]zblcl.curr.1700lst.w2.data2020-06-03 06:53 87K 
[IMG]hwcrit.curr.1400lst.d2.png2020-06-03 05:55 87K 
[IMG]zsfclcl.curr.0800lst.d2.png2020-06-03 05:43 87K 
[IMG]previous.wblmaxmin.curr.1400lst.w2.png2020-06-02 06:37 87K 
[IMG]zsfclcldif.curr.1700lst.d2.png2020-06-03 06:01 87K 
[IMG]zblcl.curr.1700lst.w2.png2020-06-03 06:53 87K 
[IMG]previous.dbl.curr.1400lst.w2.png2020-06-02 06:37 87K 
[   ]previous.zsfclcl.curr.1400lst.w2.data2020-06-02 06:36 86K 
[IMG]previous.zblcldif.curr.0500lst.d2.png2020-06-02 05:40 86K 
[IMG]previous.zsfclcldif.curr.1100lst.d2.png2020-06-02 05:48 86K 
[IMG]dbl.curr.1700lst.d2.png2020-06-03 06:01 86K 
[IMG]previous.zsfclcldif.curr.0500lst.d2.png2020-06-02 05:40 86K 
[IMG]previous.zsfclcldif.curr.1400lst.d2.png2020-06-02 05:55 86K 
[IMG]previous.sfcshf.curr.1100lst.d2.png2020-06-02 05:48 86K 
[   ]previous.zsfclcl.curr.1100lst.w2.data2020-06-02 06:20 86K 
[IMG]previous.zsfclcl.curr.1700lst.d2.png2020-06-02 05:58 86K 
[IMG]wstar_bsratio.curr.1400lst.d2.png2020-06-03 05:55 86K 
[IMG]previous.blwindshear.curr.1400lst.w2.png2020-06-02 06:37 86K 
[IMG]zsfclcl.curr.0500lst.d2.png2020-06-03 05:39 86K 
[   ]previous.zblcldif.curr.0500lst.d2.data2020-06-02 05:39 85K 
[IMG]previous.sfcsunpct.curr.1700lst.d2.png2020-06-02 05:58 85K 
[IMG]previous.sfcdewpt.curr.1100lst.d2.png2020-06-02 05:48 85K 
[IMG]previous.sfctemp.curr.1100lst.w2.png2020-06-02 06:21 85K 
[IMG]previous.press925.curr.1400lst.d2.png2020-06-02 05:55 85K 
[IMG]previous.zsfclcldif.curr.1700lst.d2.png2020-06-02 05:58 85K 
[IMG]bsratio.curr.1400lst.w2.png2020-06-03 06:37 85K 
[   ]previous.zblcldif.curr.0800lst.d2.data2020-06-02 05:43 85K 
[   ]zsfclcldif.curr.1100lst.w2.data2020-06-03 06:17 84K 
[   ]zsfclcl.curr.1400lst.w2.data2020-06-03 06:36 84K 
[IMG]previous.press925.curr.1100lst.d2.png2020-06-02 05:48 84K 
[IMG]blwindshear.curr.1700lst.d2.png2020-06-03 06:02 84K 
[IMG]hbl.curr.1700lst.w2.png2020-06-03 06:53 84K 
[   ]previous.zblcldif.curr.1100lst.d2.data2020-06-02 05:47 84K 
[IMG]zsfclcldif.curr.1100lst.d2.png2020-06-03 05:50 84K 
[IMG]sfcshf.curr.0800lst.d2.png2020-06-03 05:43 84K 
[IMG]zsfclcl.curr.1100lst.d2.png2020-06-03 05:50 84K 
[IMG]previous.press925.curr.0800lst.d2.png2020-06-02 05:44 84K 
[IMG]previous.sfcshf.curr.1400lst.w2.png2020-06-02 06:37 83K 
[IMG]previous.wstar_bsratio.curr.1100lst.d2.png2020-06-02 05:48 83K 
[IMG]wstar_bsratio.curr.1100lst.d2.png2020-06-03 05:50 83K 
[   ]zsfclcl.curr.1700lst.w2.data2020-06-03 06:53 83K 
[   ]previous.blcwbase.curr.1400lst.w2.data2020-06-02 06:36 83K 
[   ]blcwbase.curr.1700lst.w2.data2020-06-03 06:53 83K 
[   ]previous.blcwbase.curr.1100lst.w2.data2020-06-02 06:20 83K 
[   ]blcwbase.curr.1400lst.w2.data2020-06-03 06:37 83K 
[   ]blcwbase.curr.1100lst.w2.data2020-06-03 06:17 83K 
[   ]previous.blcwbase.curr.1700lst.w2.data2020-06-02 06:52 83K 
[   ]previous.sfctemp.curr.1400lst.w2.data2020-06-02 06:36 83K 
[   ]previous.sfctemp.curr.1100lst.w2.data2020-06-02 06:20 83K 
[   ]previous.sfctemp.curr.1700lst.w2.data2020-06-02 06:52 83K 
[   ]sfctemp.curr.1400lst.w2.data2020-06-03 06:37 83K 
[   ]sfctemp.curr.1100lst.w2.data2020-06-03 06:17 83K 
[   ]previous.zsfclcl.curr.1700lst.w2.data2020-06-02 06:52 83K 
[   ]sfctemp.curr.1700lst.w2.data2020-06-03 06:53 83K 
[   ]previous.zblcldif.curr.1400lst.d2.data2020-06-02 05:54 83K 
[IMG]sfcshf.curr.1400lst.w2.png2020-06-03 06:37 83K 
[IMG]previous.wblmaxmin.curr.1700lst.d2.png2020-06-02 05:58 83K 
[IMG]zsfclcldif.curr.1400lst.d2.png2020-06-03 05:55 83K 
[IMG]previous.cape.curr.0500lst.d2.png2020-06-02 05:40 83K 
[IMG]blwindshear.curr.1700lst.w2.png2020-06-03 06:53 83K 
[   ]zsfclcl.curr.1100lst.w2.data2020-06-03 06:17 83K 
[IMG]previous.press925.curr.1700lst.d2.png2020-06-02 05:58 83K 
[IMG]press925.curr.1700lst.w2.png2020-06-03 06:53 83K 
[IMG]previous.sfcdewpt.curr.0800lst.d2.png2020-06-02 05:44 83K 
[   ]zblcldif.curr.0500lst.d2.data2020-06-03 05:39 82K 
[IMG]zsfclcl.curr.1400lst.d2.png2020-06-03 05:55 82K 
[IMG]zsfclcldif.curr.0800lst.d2.png2020-06-03 05:43 82K 
[IMG]previous.zwblmaxmin.curr.1400lst.d2.png2020-06-02 05:55 82K 
[IMG]previous.sfctemp.curr.1700lst.w2.png2020-06-02 06:53 82K 
[   ]hbl.curr.1400lst.w2.data2020-06-03 06:36 82K 
[IMG]previous.sfcdewpt.curr.1400lst.d2.png2020-06-02 05:55 81K 
[IMG]previous.sfctemp.curr.1400lst.d2.png2020-06-02 05:55 81K 
[   ]dbl.curr.1400lst.w2.data2020-06-03 06:36 81K 
[IMG]dwcrit.curr.1100lst.w2.png2020-06-03 06:18 81K 
[IMG]press925.curr.1400lst.w2.png2020-06-03 06:37 81K 
[IMG]wblmaxmin.curr.1700lst.w2.png2020-06-03 06:53 81K 
[IMG]zsfclcl.curr.1700lst.d2.png2020-06-03 06:01 81K 
[IMG]press925.curr.1400lst.d2.png2020-06-03 05:55 81K 
[IMG]zwblmaxmin.curr.1400lst.w2.png2020-06-03 06:37 81K 
[IMG]previous.wstar_bsratio.curr.1400lst.w2.png2020-06-02 06:37 81K 
[IMG]dwcrit.curr.1400lst.w2.png2020-06-03 06:37 80K 
[   ]hbl.curr.1100lst.w2.data2020-06-03 06:17 80K 
[IMG]sfctemp.curr.1100lst.w2.png2020-06-03 06:18 80K 
[IMG]previous.sfcshf.curr.1700lst.d2.png2020-06-02 05:58 80K 
[IMG]previous.bsratio.curr.1100lst.d2.png2020-06-02 05:48 80K 
[   ]previous.hbl.curr.1400lst.w2.data2020-06-02 06:36 80K 
[IMG]press925.curr.1100lst.d2.png2020-06-03 05:50 80K 
[   ]sfcdewpt.curr.1700lst.w2.data2020-06-03 06:53 80K 
[IMG]press925.curr.1700lst.d2.png2020-06-03 06:01 80K 
[IMG]zsfclcldif.curr.0500lst.d2.png2020-06-03 05:39 80K 
[   ]zwblmaxmin.curr.1400lst.w2.data2020-06-03 06:37 80K 
[IMG]press850.curr.1700lst.w2.png2020-06-03 06:53 80K 
[IMG]previous.blwindshear.curr.1100lst.w2.png2020-06-02 06:21 80K 
[IMG]sfcsunpct.curr.1100lst.w2.png2020-06-03 06:18 80K 
[IMG]previous.hbl.curr.1700lst.d2.png2020-06-02 05:58 79K 
[IMG]sfcdewpt.curr.1100lst.d2.png2020-06-03 05:50 79K 
[IMG]sfctemp.curr.1700lst.w2.png2020-06-03 06:53 79K 
[   ]zblcldif.curr.0800lst.d2.data2020-06-03 05:42 79K 
[   ]zsfclcldif.curr.1400lst.w2.data2020-06-03 06:36 79K 
[   ]previous.zblcldif.curr.1700lst.d2.data2020-06-02 05:58 79K 
[IMG]previous.sfcsunpct.curr.0800lst.d2.png2020-06-02 05:44 79K 
[   ]sfcdewpt.curr.1400lst.w2.data2020-06-03 06:37 79K 
[IMG]previous.bltopvariab.curr.1700lst.w2.png2020-06-02 06:53 79K 
[IMG]previous.bsratio.curr.1400lst.d2.png2020-06-02 05:55 79K 
[IMG]press700.curr.1400lst.w2.png2020-06-03 06:37 79K 
[IMG]hbl.curr.0800lst.d2.png2020-06-03 05:43 78K 
[   ]previous.zwblmaxmin.curr.1400lst.w2.data2020-06-02 06:36 78K 
[IMG]cape.curr.1100lst.d2.png2020-06-03 05:50 78K 
[IMG]wblmaxmin.curr.1100lst.w2.png2020-06-03 06:18 78K 
[IMG]previous.wblmaxmin.curr.1100lst.w2.png2020-06-02 06:21 78K 
[   ]zwblmaxmin.curr.1100lst.w2.data2020-06-03 06:17 78K 
[IMG]wblmaxmin.curr.1700lst.d2.png2020-06-03 06:01 78K 
[IMG]previous.sfctemp.curr.1700lst.d2.png2020-06-02 05:58 78K 
[IMG]previous.sfcshf.curr.1100lst.w2.png2020-06-02 06:21 78K 
[IMG]press925.curr.1100lst.w2.png2020-06-03 06:18 78K 
[   ]sfcdewpt.curr.1100lst.w2.data2020-06-03 06:17 78K 
[IMG]sfcdewpt.curr.1400lst.d2.png2020-06-03 05:55 78K 
[IMG]previous.hwcrit.curr.1400lst.d2.png2020-06-02 05:54 78K 
[IMG]press925.curr.0800lst.d2.png2020-06-03 05:43 77K 
[IMG]previous.wblmaxmin.curr.1700lst.w2.png2020-06-02 06:53 77K 
[IMG]hwcrit.curr.1100lst.w2.png2020-06-03 06:18 77K 
[IMG]previous.hbl.curr.0800lst.d2.png2020-06-02 05:44 77K 
[   ]previous.hbl.curr.1100lst.w2.data2020-06-02 06:20 77K 
[   ]previous.zsfclcldif.curr.0500lst.d2.data2020-06-02 05:39 77K 
[   ]previous.dbl.curr.1400lst.w2.data2020-06-02 06:36 77K 
[   ]hbl.curr.1700lst.w2.data2020-06-03 06:53 77K 
[IMG]previous.sfcdewpt.curr.1700lst.w2.png2020-06-02 06:53 77K 
[   ]previous.sfcdewpt.curr.1700lst.w2.data2020-06-02 06:52 77K 
[IMG]previous.wstar.curr.1400lst.d2.png2020-06-02 05:55 77K 
[IMG]previous.blcloudpct.curr.1700lst.d2.png2020-06-02 05:58 77K 
[IMG]press700.curr.1700lst.w2.png2020-06-03 06:53 76K 
[   ]hwcrit.curr.1400lst.w2.data2020-06-03 06:36 76K 
[IMG]bltopvariab.curr.1100lst.w2.png2020-06-03 06:18 76K 
[IMG]previous.hbl.curr.1400lst.w2.png2020-06-02 06:37 76K 
[   ]zblcldif.curr.1100lst.d2.data2020-06-03 05:49 76K 
[IMG]sfctemp.curr.1700lst.d2.png2020-06-03 06:02 76K 
[   ]dbl.curr.1100lst.w2.data2020-06-03 06:17 76K 
[   ]zwblmaxmin.curr.1700lst.w2.data2020-06-03 06:53 76K 
[IMG]previous.blcloudpct.curr.0800lst.d2.png2020-06-02 05:44 75K 
[IMG]press700.curr.1100lst.w2.png2020-06-03 06:18 75K 
[   ]previous.zwblmaxmin.curr.1100lst.w2.data2020-06-02 06:20 75K 
[IMG]previous.wstar_bsratio.curr.1100lst.w2.png2020-06-02 06:21 75K 
[IMG]hwcrit.curr.1100lst.d2.png2020-06-03 05:50 75K 
[   ]zblcldif.curr.1700lst.d2.data2020-06-03 06:01 75K 
[IMG]previous.bsratio.curr.1100lst.w2.png2020-06-02 06:21 75K 
[IMG]press500.curr.1400lst.w2.png2020-06-03 06:37 75K 
[   ]previous.hwcrit.curr.1400lst.w2.data2020-06-02 06:36 74K 
[IMG]previous.press850.curr.0500lst.d2.png2020-06-02 05:40 74K 
[IMG]sfctemp.curr.0800lst.d2.png2020-06-03 05:43 74K 
[IMG]sfcsunpct.curr.1400lst.w2.png2020-06-03 06:37 74K 
[   ]zsfclcldif.curr.0500lst.d2.data2020-06-03 05:39 74K 
[   ]previous.hbl.curr.1700lst.w2.data2020-06-02 06:52 74K 
[IMG]wstar.curr.1400lst.d2.png2020-06-03 05:55 73K 
[IMG]hbl.curr.1100lst.w2.png2020-06-03 06:18 73K 
[   ]hwcrit.curr.1100lst.w2.data2020-06-03 06:17 73K 
[IMG]sfcdewpt.curr.0800lst.d2.png2020-06-03 05:43 73K 
[   ]previous.zwblmaxmin.curr.1700lst.w2.data2020-06-02 06:52 73K 
[IMG]previous.cape.curr.1100lst.w2.png2020-06-02 06:21 73K 
[   ]zblcldif.curr.1400lst.d2.data2020-06-03 05:54 73K 
[IMG]previous.dbl.curr.1100lst.w2.png2020-06-02 06:21 73K 
[   ]previous.zblcl.curr.0500lst.d2.data2020-06-02 05:39 73K 
[   ]previous.zsfclcldif.curr.1700lst.d2.data2020-06-02 05:58 73K 
[IMG]previous.sfcsunpct.curr.1100lst.d2.png2020-06-02 05:48 73K 
[IMG]wstar_bsratio.curr.1400lst.w2.png2020-06-03 06:37 73K 
[   ]bltopvariab.curr.1700lst.w2.data2020-06-03 06:53 73K 
[IMG]previous.blwindshear.curr.1700lst.d2.png2020-06-02 05:58 73K 
[   ]previous.zblcl.curr.1100lst.d2.data2020-06-02 05:47 73K 
[IMG]previous.dwcrit.curr.1400lst.w2.png2020-06-02 06:37 73K 
[   ]previous.zblcl.curr.0800lst.d2.data2020-06-02 05:43 73K 
[   ]previous.zblcl.curr.1400lst.d2.data2020-06-02 05:54 72K 
[   ]previous.zsfclcldif.curr.1400lst.d2.data2020-06-02 05:54 72K 
[   ]previous.sfcdewpt.curr.1400lst.w2.data2020-06-02 06:36 72K 
[   ]previous.zsfclcldif.curr.1100lst.d2.data2020-06-02 05:47 72K 
[IMG]dbl.curr.1700lst.w2.png2020-06-03 06:53 72K 
[IMG]wstar_bsratio.curr.1100lst.w2.png2020-06-03 06:18 72K 
[IMG]press850.curr.1100lst.w2.png2020-06-03 06:18 72K 
[   ]previous.zsfclcldif.curr.0800lst.d2.data2020-06-02 05:43 72K 
[IMG]previous.zwblmaxmin.curr.1400lst.w2.png2020-06-02 06:37 72K 
[IMG]previous.hwcrit.curr.1400lst.w2.png2020-06-02 06:37 72K 
[IMG]zwblmaxmin.curr.1100lst.d2.png2020-06-03 05:50 72K 
[IMG]previous.sfcdewpt.curr.0500lst.d2.png2020-06-02 05:40 72K 
[IMG]previous.zsfclcl.curr.1100lst.w2.png2020-06-02 06:21 72K 
[IMG]press850.curr.1400lst.w2.png2020-06-03 06:37 72K 
[IMG]previous.sfcsunpct.curr.1400lst.d2.png2020-06-02 05:55 72K 
[IMG]previous.cape.curr.1400lst.w2.png2020-06-02 06:37 72K 
[   ]previous.sfcdewpt.curr.1100lst.w2.data2020-06-02 06:20 71K 
[IMG]previous.blcloudpct.curr.1400lst.d2.png2020-06-02 05:55 71K 
[IMG]previous.sfcsunpct.curr.1700lst.w2.png2020-06-02 06:53 71K 
[IMG]press500.curr.1100lst.w2.png2020-06-03 06:18 71K 
[IMG]previous.sfcshf.curr.1700lst.w2.png2020-06-02 06:53 71K 
[IMG]previous.hbl.curr.1700lst.w2.png2020-06-02 06:53 71K 
[   ]previous.hwcrit.curr.1100lst.w2.data2020-06-02 06:20 71K 
[IMG]press500.curr.1700lst.w2.png2020-06-03 06:53 71K 
[IMG]cape.curr.0500lst.d2.png2020-06-03 05:39 71K 
[IMG]sfcdewpt.curr.0500lst.d2.png2020-06-03 05:39 71K 
[   ]previous.hwcrit.curr.1700lst.w2.data2020-06-02 06:52 71K 
[   ]hwcrit.curr.1700lst.w2.data2020-06-03 06:53 71K 
[IMG]previous.zsfclcldif.curr.1400lst.w2.png2020-06-02 06:37 71K 
[IMG]wstar_bsratio.curr.1700lst.d2.png2020-06-03 06:02 71K 
[IMG]sfcshf.curr.1700lst.w2.png2020-06-03 06:53 71K 
[   ]previous.zblcl.curr.1700lst.d2.data2020-06-02 05:58 71K 
[   ]zblcl.curr.0500lst.d2.data2020-06-03 05:39 71K 
[   ]zsfclcldif.curr.0800lst.d2.data2020-06-03 05:42 70K 
[IMG]wstar.curr.1100lst.d2.png2020-06-03 05:50 70K 
[   ]zblcl.curr.0800lst.d2.data2020-06-03 05:42 70K 
[IMG]previous.zsfclcldif.curr.1100lst.w2.png2020-06-02 06:21 70K 
[IMG]previous.blcloudpct.curr.1100lst.d2.png2020-06-02 05:48 70K 
[IMG]hwcrit.curr.1400lst.w2.png2020-06-03 06:37 70K 
[IMG]zsfclcldif.curr.1700lst.w2.png2020-06-03 06:53 70K 
[IMG]previous.boxwmax.curr.0800lst.d2.png2020-06-02 05:44 70K 
[IMG]previous.dwcrit.curr.1400lst.d2.png2020-06-02 05:55 70K 
[   ]zblcl.curr.1100lst.d2.data2020-06-03 05:49 70K 
[   ]previous.zsfclcl.curr.0500lst.d2.data2020-06-02 05:39 69K 
[IMG]previous.sfcdewpt.curr.1100lst.w2.png2020-06-02 06:21 69K 
[   ]zblcl.curr.1400lst.d2.data2020-06-03 05:54 69K 
[IMG]hbl.curr.1400lst.w2.png2020-06-03 06:37 69K 
[IMG]previous.wstar.curr.1100lst.d2.png2020-06-02 05:48 69K 
[IMG]previous.hbl.curr.1100lst.w2.png2020-06-02 06:21 69K 
[IMG]bltopvariab.curr.1400lst.w2.png2020-06-03 06:37 69K 
[   ]bltopvariab.curr.1100lst.w2.data2020-06-03 06:17 69K 
[IMG]sfcsunpct.curr.0800lst.d2.png2020-06-03 05:43 69K 
[IMG]previous.blwindshear.curr.0800lst.d2.png2020-06-02 05:44 68K 
[   ]zblcl.curr.1700lst.d2.data2020-06-03 06:01 68K 
[IMG]hwcrit.curr.1700lst.d2.png2020-06-03 06:01 68K 
[   ]zsfclcldif.curr.1100lst.d2.data2020-06-03 05:49 68K 
[IMG]previous.zsfclcldif.curr.1700lst.w2.png2020-06-02 06:53 68K 
[IMG]previous.hwcrit.curr.1100lst.d2.png2020-06-02 05:48 68K 
[IMG]hwcrit.curr.0800lst.d2.png2020-06-03 05:43 68K 
[IMG]hwcrit.curr.0500lst.d2.png2020-06-03 05:39 68K 
[IMG]previous.hwcrit.curr.0800lst.d2.png2020-06-02 05:44 68K 
[IMG]previous.hwcrit.curr.0500lst.d2.png2020-06-02 05:40 68K 
[IMG]previous.hwcrit.curr.1700lst.d2.png2020-06-02 05:58 68K 
[IMG]previous.bltopvariab.curr.1100lst.w2.png2020-06-02 06:21 68K 
[IMG]previous.zsfclcl.curr.1700lst.w2.png2020-06-02 06:53 68K 
[   ]zsfclcldif.curr.1700lst.d2.data2020-06-03 06:01 68K 
[IMG]zwblmaxmin.curr.1100lst.w2.png2020-06-03 06:18 68K 
[IMG]cape.curr.0800lst.d2.png2020-06-03 05:43 68K 
[IMG]previous.press925.curr.0500lst.d2.png2020-06-02 05:40 68K 
[IMG]previous.sfctemp.curr.1400lst.w2.png2020-06-02 06:37 67K 
[IMG]previous.bltopvariab.curr.1400lst.w2.png2020-06-02 06:37 67K 
[   ]bltopvariab.curr.1400lst.w2.data2020-06-03 06:37 67K 
[IMG]bltopvariab.curr.0800lst.d2.png2020-06-03 05:43 67K 
[IMG]bsratio.curr.1700lst.d2.png2020-06-03 06:01 67K 
[   ]dwcrit.curr.1400lst.w2.data2020-06-03 06:36 67K 
[   ]previous.bltopvariab.curr.1400lst.w2.data2020-06-02 06:36 67K 
[IMG]previous.wstar.curr.1400lst.w2.png2020-06-02 06:37 67K 
[IMG]hbl.curr.0500lst.d2.png2020-06-03 05:39 67K 
[IMG]previous.hbl.curr.0500lst.d2.png2020-06-02 05:40 67K 
[   ]previous.bltopvariab.curr.1700lst.w2.data2020-06-02 06:52 67K 
[IMG]previous.zsfclcl.curr.1400lst.w2.png2020-06-02 06:37 67K 
[   ]previous.bltopvariab.curr.1100lst.w2.data2020-06-02 06:20 67K 
[IMG]press850.curr.0500lst.d2.png2020-06-03 05:39 67K 
[   ]previous.zsfclcl.curr.1400lst.d2.data2020-06-02 05:54 67K 
[IMG]previous.bsratio.curr.1400lst.w2.png2020-06-02 06:37 67K 
[   ]previous.bltopwinddir.curr.1400lst.w2.data2020-06-02 06:36 66K 
[IMG]previous.dbl.curr.1700lst.d2.png2020-06-02 05:58 66K 
[IMG]dwcrit.curr.1100lst.d2.png2020-06-03 05:50 66K 
[   ]previous.blwinddir.curr.1400lst.w2.data2020-06-02 06:36 66K 
[IMG]sfctemp.curr.1400lst.w2.png2020-06-03 06:37 66K 
[   ]previous.bltopwinddir.curr.1700lst.w2.data2020-06-02 06:52 65K 
[   ]previous.blwinddir.curr.1700lst.w2.data2020-06-02 06:52 65K 
[   ]previous.sfcwinddir.curr.1700lst.w2.data2020-06-02 06:52 65K 
[   ]previous.sfcwinddir.curr.1400lst.w2.data2020-06-02 06:36 65K 
[   ]bltopwinddir.curr.1100lst.w2.data2020-06-03 06:17 65K 
[   ]previous.zsfclcl.curr.1100lst.d2.data2020-06-02 05:47 65K 
[   ]zsfclcldif.curr.1400lst.d2.data2020-06-03 05:54 65K 
[IMG]previous.boxwmax.curr.1700lst.d2.png2020-06-02 05:58 65K 
[   ]previous.dbl.curr.1100lst.w2.data2020-06-02 06:20 65K 
[   ]zsfclcl.curr.0500lst.d2.data2020-06-03 05:39 65K 
[   ]blwinddir.curr.1100lst.w2.data2020-06-03 06:17 65K 
[   ]blwinddir.curr.1400lst.w2.data2020-06-03 06:36 65K 
[   ]sfcwinddir.curr.1400lst.w2.data2020-06-03 06:36 65K 
[IMG]previous.sounding10.curr.1400lst.d2.png2020-06-02 05:55 65K 
[   ]blwinddir.curr.1700lst.w2.data2020-06-03 06:53 65K 
[   ]sfcwinddir.curr.1700lst.w2.data2020-06-03 06:53 65K 
[   ]previous.bltopwinddir.curr.1100lst.w2.data2020-06-02 06:20 65K 
[   ]bltopwinddir.curr.1700lst.w2.data2020-06-03 06:53 65K 
[IMG]previous.sounding1.curr.1700lst.d2.png2020-06-02 05:58 65K 
[IMG]previous.sounding6.curr.1700lst.d2.png2020-06-02 05:58 65K 
[IMG]previous.sounding10.curr.1100lst.d2.png2020-06-02 05:48 65K 
[IMG]zwblmaxmin.curr.1700lst.d2.png2020-06-03 06:01 65K 
[IMG]previous.sounding10.curr.1700lst.d2.png2020-06-02 05:58 64K 
[IMG]previous.sounding10.curr.0800lst.d2.png2020-06-02 05:44 64K 
[IMG]previous.sounding4.curr.1700lst.d2.png2020-06-02 05:58 64K 
[IMG]previous.sounding1.curr.1400lst.d2.png2020-06-02 05:55 64K 
[IMG]sounding4.curr.1400lst.d2.png2020-06-03 05:55 64K 
[IMG]blwindshear.curr.0800lst.d2.png2020-06-03 05:43 64K 
[IMG]previous.sounding2.curr.1100lst.d2.png2020-06-02 05:48 64K 
[IMG]previous.sounding4.curr.1400lst.d2.png2020-06-02 05:55 64K 
[IMG]previous.sounding1.curr.0800lst.d2.png2020-06-02 05:44 64K 
[IMG]previous.sounding6.curr.1400lst.d2.png2020-06-02 05:55 64K 
[IMG]previous.sounding5.curr.0800lst.d2.png2020-06-02 05:44 64K 
[   ]zsfclcl.curr.1400lst.d2.data2020-06-03 05:54 64K 
[   ]sfcwinddir.curr.1100lst.w2.data2020-06-03 06:17 64K 
[IMG]previous.sounding2.curr.1400lst.d2.png2020-06-02 05:55 64K 
[IMG]previous.sounding3.curr.1400lst.d2.png2020-06-02 05:55 64K 
[IMG]previous.sounding6.curr.1100lst.d2.png2020-06-02 05:48 64K 
[IMG]previous.sounding3.curr.1700lst.d2.png2020-06-02 05:58 64K 
[IMG]previous.sounding4.curr.1100lst.d2.png2020-06-02 05:48 64K 
[   ]wstar.curr.1400lst.w2.data2020-06-03 06:36 64K 
[IMG]press925.curr.0500lst.d2.png2020-06-03 05:39 64K 
[IMG]sounding1.curr.1400lst.d2.png2020-06-03 05:55 64K 
[IMG]previous.sounding7.curr.1400lst.d2.png2020-06-02 05:55 64K 
[IMG]previous.sounding5.curr.1400lst.d2.png2020-06-02 05:55 64K 
[IMG]sounding9.curr.0500lst.d2.png2020-06-03 05:39 64K 
[IMG]sounding9.curr.1400lst.d2.png2020-06-03 05:55 64K 
[IMG]previous.sounding8.curr.1700lst.d2.png2020-06-02 05:58 64K 
[IMG]previous.sounding5.curr.0500lst.d2.png2020-06-02 05:40 64K 
[IMG]sounding2.curr.1400lst.d2.png2020-06-03 05:55 64K 
[IMG]previous.sounding4.curr.0800lst.d2.png2020-06-02 05:44 64K 
[   ]previous.zsfclcl.curr.1700lst.d2.data2020-06-02 05:58 64K 
[IMG]previous.sounding3.curr.1100lst.d2.png2020-06-02 05:48 64K 
[IMG]previous.sounding6.curr.0800lst.d2.png2020-06-02 05:44 64K 
[IMG]previous.sounding7.curr.1700lst.d2.png2020-06-02 05:58 64K 
[IMG]previous.sounding3.curr.0800lst.d2.png2020-06-02 05:44 64K 
[IMG]previous.sounding1.curr.1100lst.d2.png2020-06-02 05:48 64K 
[IMG]previous.sounding10.curr.0500lst.d2.png2020-06-02 05:40 64K 
[IMG]sounding6.curr.1400lst.d2.png2020-06-03 05:55 64K 
[IMG]sounding5.curr.1400lst.d2.png2020-06-03 05:55 64K 
[IMG]sounding1.curr.1100lst.d2.png2020-06-03 05:50 64K 
[IMG]previous.sounding5.curr.1700lst.d2.png2020-06-02 05:58 64K 
[IMG]sounding2.curr.1700lst.d2.png2020-06-03 06:02 64K 
[IMG]previous.sounding2.curr.1700lst.d2.png2020-06-02 05:58 64K 
[IMG]sounding9.curr.1100lst.d2.png2020-06-03 05:50 64K 
[IMG]sounding1.curr.1700lst.d2.png2020-06-03 06:02 64K 
[IMG]sounding5.curr.1100lst.d2.png2020-06-03 05:50 64K 
[IMG]previous.sfcdewpt.curr.1400lst.w2.png2020-06-02 06:37 64K 
[IMG]sounding6.curr.1700lst.d2.png2020-06-03 06:02 64K 
[IMG]sounding9.curr.1700lst.d2.png2020-06-03 06:02 64K 
[IMG]previous.sounding3.curr.0500lst.d2.png2020-06-02 05:40 64K 
[IMG]sounding9.curr.0800lst.d2.png2020-06-03 05:43 64K 
[IMG]sounding8.curr.1100lst.d2.png2020-06-03 05:50 64K 
[IMG]previous.sounding8.curr.1100lst.d2.png2020-06-02 05:48 64K 
[IMG]sounding2.curr.1100lst.d2.png2020-06-03 05:50 64K 
[IMG]sounding8.curr.1700lst.d2.png2020-06-03 06:02 64K 
[IMG]previous.sounding2.curr.0800lst.d2.png2020-06-02 05:44 64K 
[IMG]sounding8.curr.1400lst.d2.png2020-06-03 05:55 64K 
[IMG]sounding4.curr.1100lst.d2.png2020-06-03 05:50 64K 
[IMG]sounding4.curr.1700lst.d2.png2020-06-03 06:02 64K 
[IMG]sounding3.curr.1400lst.d2.png2020-06-03 05:55 64K 
[IMG]previous.sounding7.curr.1100lst.d2.png2020-06-02 05:48 64K 
[IMG]previous.sounding9.curr.0800lst.d2.png2020-06-02 05:44 64K 
[IMG]previous.sounding9.curr.0500lst.d2.png2020-06-02 05:40 64K 
[IMG]previous.sounding7.curr.0800lst.d2.png2020-06-02 05:44 64K 
[IMG]sounding6.curr.1100lst.d2.png2020-06-03 05:50 64K 
[   ]previous.blwinddir.curr.1100lst.w2.data2020-06-02 06:20 64K 
[IMG]sounding5.curr.1700lst.d2.png2020-06-03 06:02 64K 
[IMG]previous.sounding2.curr.0500lst.d2.png2020-06-02 05:40 64K 
[IMG]sounding7.curr.1100lst.d2.png2020-06-03 05:50 64K 
[IMG]sounding10.curr.1700lst.d2.png2020-06-03 06:02 64K 
[IMG]previous.sounding8.curr.0800lst.d2.png2020-06-02 05:44 64K 
[IMG]previous.sounding9.curr.1400lst.d2.png2020-06-02 05:55 64K 
[IMG]sounding5.curr.0800lst.d2.png2020-06-03 05:43 64K 
[   ]zsfclcl.curr.1700lst.d2.data2020-06-03 06:01 64K 
[IMG]previous.sounding9.curr.1700lst.d2.png2020-06-02 05:58 64K 
[IMG]sounding8.curr.0800lst.d2.png2020-06-03 05:43 64K 
[IMG]sounding2.curr.0800lst.d2.png2020-06-03 05:43 64K 
[IMG]previous.sounding8.curr.1400lst.d2.png2020-06-02 05:55 64K 
[IMG]previous.sounding5.curr.1100lst.d2.png2020-06-02 05:48 64K 
[IMG]previous.sounding1.curr.0500lst.d2.png2020-06-02 05:40 64K 
[IMG]sounding3.curr.0500lst.d2.png2020-06-03 05:39 64K 
[IMG]sounding7.curr.0800lst.d2.png2020-06-03 05:43 64K 
[IMG]previous.sounding6.curr.0500lst.d2.png2020-06-02 05:40 64K 
[IMG]previous.sounding4.curr.0500lst.d2.png2020-06-02 05:40 64K 
[IMG]sounding4.curr.0800lst.d2.png2020-06-03 05:43 64K 
[IMG]sounding10.curr.0500lst.d2.png2020-06-03 05:39 64K 
[IMG]sounding3.curr.1100lst.d2.png2020-06-03 05:50 63K 
[IMG]sounding7.curr.1400lst.d2.png2020-06-03 05:55 63K 
[IMG]previous.sounding7.curr.0500lst.d2.png2020-06-02 05:40 63K 
[IMG]sounding10.curr.1400lst.d2.png2020-06-03 05:55 63K 
[IMG]sounding5.curr.0500lst.d2.png2020-06-03 05:39 63K 
[IMG]sounding3.curr.0800lst.d2.png2020-06-03 05:43 63K 
[   ]bltopwinddir.curr.1400lst.w2.data2020-06-03 06:37 63K 
[IMG]sounding2.curr.0500lst.d2.png2020-06-03 05:39 63K 
[IMG]sounding7.curr.1700lst.d2.png2020-06-03 06:02 63K 
[IMG]sounding10.curr.1100lst.d2.png2020-06-03 05:50 63K 
[IMG]sounding4.curr.0500lst.d2.png2020-06-03 05:39 63K 
[IMG]previous.sounding9.curr.1100lst.d2.png2020-06-02 05:48 63K 
[   ]zsfclcl.curr.1100lst.d2.data2020-06-03 05:49 63K 
[IMG]sounding6.curr.0500lst.d2.png2020-06-03 05:39 63K 
[IMG]sounding1.curr.0800lst.d2.png2020-06-03 05:43 63K 
[IMG]sounding1.curr.0500lst.d2.png2020-06-03 05:39 63K 
[IMG]sounding3.curr.1700lst.d2.png2020-06-03 06:02 63K 
[IMG]sounding8.curr.0500lst.d2.png2020-06-03 05:39 63K 
[IMG]previous.sounding8.curr.0500lst.d2.png2020-06-02 05:40 63K 
[IMG]sounding7.curr.0500lst.d2.png2020-06-03 05:39 63K 
[IMG]sounding6.curr.0800lst.d2.png2020-06-03 05:43 63K 
[IMG]bsratio.curr.0800lst.d2.png2020-06-03 05:43 63K 
[   ]previous.blcwbase.curr.1400lst.d2.data2020-06-02 05:54 63K 
[   ]blcwbase.curr.1700lst.d2.data2020-06-03 06:01 63K 
[   ]previous.blcwbase.curr.1100lst.d2.data2020-06-02 05:47 63K 
[   ]blcwbase.curr.1100lst.d2.data2020-06-03 05:49 63K 
[   ]previous.blcwbase.curr.0800lst.d2.data2020-06-02 05:43 63K 
[   ]previous.blcwbase.curr.0500lst.d2.data2020-06-02 05:39 63K 
[   ]blcwbase.curr.0800lst.d2.data2020-06-03 05:42 63K 
[   ]blcwbase.curr.0500lst.d2.data2020-06-03 05:39 63K 
[   ]previous.blcwbase.curr.1700lst.d2.data2020-06-02 05:58 63K 
[   ]blcwbase.curr.1400lst.d2.data2020-06-03 05:54 63K 
[   ]sfcsunpct.curr.0500lst.d2.data2020-06-03 05:39 63K 
[   ]previous.sfcsunpct.curr.0500lst.d2.data2020-06-02 05:39 63K 
[   ]sfctemp.curr.1400lst.d2.data2020-06-03 05:54 63K 
[   ]previous.sfctemp.curr.1700lst.d2.data2020-06-02 05:58 63K 
[   ]previous.sfctemp.curr.1400lst.d2.data2020-06-02 05:54 63K 
[   ]sfctemp.curr.1100lst.d2.data2020-06-03 05:49 63K 
[   ]previous.sfctemp.curr.1100lst.d2.data2020-06-02 05:47 63K 
[   ]sfctemp.curr.0500lst.d2.data2020-06-03 05:39 63K 
[   ]previous.sfctemp.curr.0500lst.d2.data2020-06-02 05:39 63K 
[   ]sfctemp.curr.1700lst.d2.data2020-06-03 06:01 63K 
[   ]previous.zsfclcl.curr.0800lst.d2.data2020-06-02 05:43 63K 
[IMG]color_topo.g3.png2013-04-08 23:25 63K 
[IMG]sounding10.curr.0800lst.d2.png2020-06-03 05:43 63K 
[   ]previous.sfcwinddir.curr.1100lst.w2.data2020-06-02 06:20 63K 
[IMG]wstar.curr.1400lst.w2.png2020-06-03 06:37 63K 
[IMG]zsfclcldif.curr.1100lst.w2.png2020-06-03 06:18 63K 
[IMG]wstar.curr.1100lst.w2.png2020-06-03 06:18 63K 
[IMG]zsfclcl.curr.1100lst.w2.png2020-06-03 06:18 62K 
[IMG]previous.zwblmaxmin.curr.1100lst.d2.png2020-06-02 05:48 62K 
[IMG]previous.bltopvariab.curr.0800lst.d2.png2020-06-02 05:44 62K 
[IMG]previous.hwcrit.curr.1100lst.w2.png2020-06-02 06:21 62K 
[   ]previous.wstar.curr.1400lst.w2.data2020-06-02 06:36 62K 
[   ]wstar.curr.1100lst.w2.data2020-06-03 06:17 62K 
[IMG]sfcsunpct.curr.1700lst.w2.png2020-06-03 06:53 62K 
[IMG]zsfclcl.curr.1400lst.w2.png2020-06-03 06:37 62K 
[IMG]zsfclcldif.curr.1400lst.w2.png2020-06-03 06:37 62K 
[IMG]previous.wstar.curr.1100lst.w2.png2020-06-02 06:21 62K 
[IMG]previous.cape.curr.1100lst.d2.png2020-06-02 05:48 62K 
[IMG]cape.curr.1400lst.d2.png2020-06-03 05:55 62K 
[IMG]hwcrit.curr.1700lst.w2.png2020-06-03 06:53 62K 
[IMG]previous.hwcrit.curr.1700lst.w2.png2020-06-02 06:53 61K 
[   ]previous.sfctemp.curr.0800lst.d2.data2020-06-02 05:43 61K 
[   ]zsfclcl.curr.0800lst.d2.data2020-06-03 05:42 61K 
[IMG]sfcdewpt.curr.1700lst.w2.png2020-06-03 06:53 61K 
[   ]previous.sfcdewpt.curr.0500lst.d2.data2020-06-02 05:39 61K 
[IMG]wstar_bsratio.curr.1700lst.w2.png2020-06-03 06:53 61K 
[IMG]wstar_bsratio.curr.0800lst.d2.png2020-06-03 05:43 60K 
[   ]hbl.curr.1400lst.d2.data2020-06-03 05:53 60K 
[IMG]previous.wstar_bsratio.curr.1700lst.d2.png2020-06-02 05:58 60K 
[   ]dbl.curr.1700lst.w2.data2020-06-03 06:53 60K 
[   ]sfcshf.curr.1400lst.w2.data2020-06-03 06:36 60K 
[   ]dbl.curr.1400lst.d2.data2020-06-03 05:53 60K 
[IMG]previous.bsratio.curr.1700lst.d2.png2020-06-02 05:58 60K 
[IMG]previous.wstar_bsratio.curr.0800lst.d2.png2020-06-02 05:44 60K 
[   ]sfcdewpt.curr.1700lst.d2.data2020-06-03 06:01 60K 
[IMG]wstar.curr.1700lst.d2.png2020-06-03 06:01 60K 
[   ]zwblmaxmin.curr.1400lst.d2.data2020-06-03 05:54 60K 
[   ]sfctemp.curr.0800lst.d2.data2020-06-03 05:43 60K 
[IMG]previous.dbl.curr.0800lst.d2.png2020-06-02 05:44 59K 
[IMG]zsfclcl.curr.1700lst.w2.png2020-06-03 06:53 59K 
[   ]previous.hbl.curr.1400lst.d2.data2020-06-02 05:54 59K 
[   ]hbl.curr.1100lst.d2.data2020-06-03 05:49 59K 
[   ]previous.sfcshf.curr.1700lst.w2.data2020-06-02 06:52 59K 
[IMG]previous.bsratio.curr.0800lst.d2.png2020-06-02 05:44 59K 
[   ]hbl.curr.1700lst.d2.data2020-06-03 06:01 59K 
[   ]sfcdewpt.curr.0500lst.d2.data2020-06-03 05:39 59K 
[   ]sfcsunpct.curr.1700lst.w2.data2020-06-03 06:53 59K 
[   ]previous.sfcdewpt.curr.1700lst.d2.data2020-06-02 05:58 59K 
[IMG]previous.boxwmax.curr.1100lst.d2.png2020-06-02 05:48 59K 
[IMG]cape.curr.1100lst.w2.png2020-06-03 06:18 59K 
[   ]zwblmaxmin.curr.1700lst.d2.data2020-06-03 06:01 58K 
[   ]previous.hbl.curr.1100lst.d2.data2020-06-02 05:47 58K 
[   ]zwblmaxmin.curr.1100lst.d2.data2020-06-03 05:49 58K 
[   ]previous.zwblmaxmin.curr.1400lst.d2.data2020-06-02 05:54 58K 
[IMG]dbl.curr.0800lst.d2.png2020-06-03 05:43 58K 
[IMG]previous.blcloudpct.curr.1700lst.w2.png2020-06-02 06:53 58K 
[IMG]zsfclclmask.curr.1400lst.d2.png2020-06-03 05:55 58K 
[   ]previous.zwblmaxmin.curr.1100lst.d2.data2020-06-02 05:47 57K 
[   ]hbl.curr.0800lst.d2.data2020-06-03 05:42 57K 
[IMG]sfcdewpt.curr.1400lst.w2.png2020-06-03 06:37 57K 
[   ]sfcdewpt.curr.1400lst.d2.data2020-06-03 05:54 57K 
[   ]previous.wstar.curr.1100lst.w2.data2020-06-02 06:20 57K 
[IMG]sfcdewpt.curr.1100lst.w2.png2020-06-03 06:18 57K 
[   ]previous.hbl.curr.0800lst.d2.data2020-06-02 05:43 57K 
[   ]zwblmaxmin.curr.0800lst.d2.data2020-06-03 05:43 57K 
[IMG]previous.press700.curr.0500lst.d2.png2020-06-02 05:40 57K 
[   ]previous.hbl.curr.1700lst.d2.data2020-06-02 05:58 57K 
[IMG]previous.zwblmaxmin.curr.1100lst.w2.png2020-06-02 06:21 57K 
[   ]sfcdewpt.curr.1100lst.d2.data2020-06-03 05:49 57K 
[   ]previous.zwblmaxmin.curr.0800lst.d2.data2020-06-02 05:43 57K 
[   ]previous.dbl.curr.1400lst.d2.data2020-06-02 05:54 57K 
[IMG]previous.press500.curr.0500lst.d2.png2020-06-02 05:40 57K 
[IMG]previous.blwindshear.curr.1700lst.w2.png2020-06-02 06:53 57K 
[   ]previous.zwblmaxmin.curr.1700lst.d2.data2020-06-02 05:58 57K 
[IMG]previous.sfcsunpct.curr.1400lst.w2.png2020-06-02 06:37 56K 
[IMG]previous.dbl.curr.1700lst.w2.png2020-06-02 06:53 56K 
[IMG]zwblmaxmin.curr.0800lst.d2.png2020-06-03 05:43 56K 
[   ]sfcdewpt.curr.0800lst.d2.data2020-06-03 05:43 56K 
[IMG]previous.zwblmaxmin.curr.1700lst.d2.png2020-06-02 05:58 56K 
[IMG]zwblmaxmin.curr.1700lst.w2.png2020-06-03 06:53 56K 
[IMG]previous.sfcsunpct.curr.1100lst.w2.png2020-06-02 06:21 56K 
[IMG]press500.curr.0500lst.d2.png2020-06-03 05:39 56K 
[   ]previous.sfcdewpt.curr.1400lst.d2.data2020-06-02 05:54 55K 
[IMG]previous.cape.curr.1700lst.d2.png2020-06-02 05:58 55K 
[IMG]cape.curr.1700lst.d2.png2020-06-03 06:02 55K 
[   ]sfcsunpct.curr.1400lst.w2.data2020-06-03 06:36 55K 
[   ]previous.sfcdewpt.curr.0800lst.d2.data2020-06-02 05:43 55K 
[   ]bltopvariab.curr.1700lst.d2.data2020-06-03 06:01 55K 
[   ]previous.sfcdewpt.curr.1100lst.d2.data2020-06-02 05:47 55K 
[IMG]press700.curr.0500lst.d2.png2020-06-03 05:39 55K 
[IMG]previous.boxwmax.curr.1400lst.d2.png2020-06-02 05:55 54K 
[IMG]blcwbase.curr.1100lst.d2.png2020-06-03 05:50 54K 
[IMG]previous.cape.curr.0800lst.d2.png2020-06-02 05:44 54K 
[IMG]previous.zwblmaxmin.curr.0800lst.d2.png2020-06-02 05:44 54K 
[   ]sfcshf.curr.1100lst.w2.data2020-06-03 06:17 54K 
[   ]previous.sfcshf.curr.1400lst.w2.data2020-06-02 06:36 54K 
[IMG]previous.cape.curr.1400lst.d2.png2020-06-02 05:55 54K 
[IMG]zblclmask.curr.1400lst.d2.png2020-06-03 05:55 54K 
[IMG]blcwbase.curr.0800lst.d2.png2020-06-03 05:43 54K 
[IMG]previous.blcwbase.curr.1400lst.d2.png2020-06-02 05:55 54K 
[IMG]previous.blcwbase.curr.1700lst.d2.png2020-06-02 05:58 54K 
[IMG]dwcrit.curr.1700lst.d2.png2020-06-03 06:01 54K 
[IMG]previous.dwcrit.curr.1100lst.d2.png2020-06-02 05:48 53K 
[IMG]blcwbase.curr.1400lst.d2.png2020-06-03 05:55 53K 
[IMG]previous.blcwbase.curr.1100lst.d2.png2020-06-02 05:48 53K 
[IMG]boxwmax.curr.1100lst.d2.png2020-06-03 05:50 53K 
[IMG]blcwbase.curr.1700lst.d2.png2020-06-03 06:01 53K 
[   ]dbl.curr.1100lst.d2.data2020-06-03 05:49 53K 
[IMG]previous.blcloudpct.curr.1100lst.w2.png2020-06-02 06:21 53K 
[   ]previous.dbl.curr.1700lst.w2.data2020-06-02 06:52 53K 
[   ]hwcrit.curr.1400lst.d2.data2020-06-03 05:54 52K 
[   ]bltopvariab.curr.0500lst.d2.data2020-06-03 05:39 52K 
[   ]previous.wblmaxmin.curr.1400lst.w2.data2020-06-02 06:36 52K 
[IMG]zsfclclmask.curr.1700lst.d2.png2020-06-03 06:01 52K 
[   ]bltopvariab.curr.1100lst.d2.data2020-06-03 05:49 52K 
[IMG]zblclmask.curr.1700lst.d2.png2020-06-03 06:01 52K 
[IMG]zsfclclmask.curr.1100lst.d2.png2020-06-03 05:50 52K 
[IMG]zblclmask.curr.1100lst.d2.png2020-06-03 05:50 52K 
[   ]bltopvariab.curr.1400lst.d2.data2020-06-03 05:54 52K 
[   ]hwcrit.curr.1700lst.d2.data2020-06-03 06:01 52K 
[   ]previous.hwcrit.curr.1400lst.d2.data2020-06-02 05:54 51K 
[   ]hwcrit.curr.1100lst.d2.data2020-06-03 05:49 51K 
[IMG]previous.blcloudpct.curr.1400lst.w2.png2020-06-02 06:37 51K 
[   ]previous.sfcsunpct.curr.1700lst.w2.data2020-06-02 06:52 51K 
[   ]previous.hwcrit.curr.1700lst.d2.data2020-06-02 05:58 51K 
[   ]previous.hwcrit.curr.1100lst.d2.data2020-06-02 05:47 51K 
[   ]previous.hwcrit.curr.0800lst.d2.data2020-06-02 05:43 51K 
[   ]previous.hwcrit.curr.0500lst.d2.data2020-06-02 05:39 51K 
[   ]hwcrit.curr.0800lst.d2.data2020-06-03 05:42 51K 
[   ]hwcrit.curr.0500lst.d2.data2020-06-03 05:39 51K 
[   ]zwblmaxmin.curr.0500lst.d2.data2020-06-03 05:39 51K 
[   ]previous.zwblmaxmin.curr.0500lst.d2.data2020-06-02 05:39 51K 
[   ]previous.hbl.curr.0500lst.d2.data2020-06-02 05:39 51K 
[   ]hbl.curr.0500lst.d2.data2020-06-03 05:39 51K 
[IMG]previous.wstar.curr.1700lst.d2.png2020-06-02 05:58 51K 
[IMG]wstar.curr.0800lst.d2.png2020-06-03 05:43 51K 
[   ]wblmaxmin.curr.1400lst.w2.data2020-06-03 06:37 51K 
[   ]previous.bltopvariab.curr.0500lst.d2.data2020-06-02 05:39 51K 
[IMG]wstar.curr.1700lst.w2.png2020-06-03 06:53 51K 
[   ]previous.bltopvariab.curr.1400lst.d2.data2020-06-02 05:54 51K 
[IMG]previous.wstar.curr.0800lst.d2.png2020-06-02 05:44 51K 
[   ]previous.sfcsunpct.curr.1400lst.w2.data2020-06-02 06:36 51K 
[   ]sfcshf.curr.1700lst.w2.data2020-06-03 06:53 50K 
[   ]previous.sfcshf.curr.1100lst.w2.data2020-06-02 06:20 50K 
[   ]previous.bltopvariab.curr.1100lst.d2.data2020-06-02 05:47 50K 
[   ]previous.bltopwinddir.curr.1400lst.d2.data2020-06-02 05:54 50K 
[   ]previous.sfcsunpct.curr.1100lst.w2.data2020-06-02 06:20 50K 
[   ]previous.blwinddir.curr.1400lst.d2.data2020-06-02 05:54 50K 
[IMG]previous.wstar_bsratio.curr.1700lst.w2.png2020-06-02 06:53 50K 
[   ]bltopwinddir.curr.0500lst.d2.data2020-06-03 05:39 50K 
[   ]previous.dwcrit.curr.1400lst.w2.data2020-06-02 06:36 50K 
[   ]blwinddir.curr.0500lst.d2.data2020-06-03 05:39 50K 
[   ]sfcwinddir.curr.0500lst.d2.data2020-06-03 05:39 50K 
[   ]previous.sfcwinddir.curr.1400lst.d2.data2020-06-02 05:54 50K 
[   ]previous.bltopwinddir.curr.1700lst.d2.data2020-06-02 05:58 50K 
[IMG]zwblmaxmin.curr.0500lst.d2.png2020-06-03 05:39 50K 
[   ]previous.blwinddir.curr.1700lst.d2.data2020-06-02 05:58 50K 
[   ]previous.sfcwinddir.curr.1700lst.d2.data2020-06-02 05:58 50K 
[IMG]previous.zwblmaxmin.curr.0500lst.d2.png2020-06-02 05:40 50K 
[IMG]zsfclclmask.curr.1100lst.w2.png2020-06-03 06:18 50K 
[   ]sfcsunpct.curr.1100lst.w2.data2020-06-03 06:17 50K 
[   ]blwinddir.curr.1400lst.d2.data2020-06-03 05:54 50K 
[   ]bltopwinddir.curr.1400lst.d2.data2020-06-03 05:54 50K 
[IMG]dwcrit.curr.0800lst.d2.png2020-06-03 05:43 50K 
[IMG]dwcrit.curr.0500lst.d2.png2020-06-03 05:39 50K 
[   ]previous.bltopwinddir.curr.0500lst.d2.data2020-06-02 05:39 50K 
[   ]previous.blwinddir.curr.0500lst.d2.data2020-06-02 05:39 49K 
[   ]sfcwinddir.curr.1400lst.d2.data2020-06-03 05:54 49K 
[IMG]bsratio.curr.0500lst.d2.png2020-06-03 05:39 49K 
[IMG]boxwmax.curr.1400lst.d2.png2020-06-03 05:55 49K 
[   ]previous.sfcwinddir.curr.0500lst.d2.data2020-06-02 05:39 49K 
[IMG]blcwbase.curr.0500lst.d2.png2020-06-03 05:39 49K 
[IMG]previous.dwcrit.curr.0500lst.d2.png2020-06-02 05:40 49K 
[   ]sfcwinddir.curr.1700lst.d2.data2020-06-03 06:01 49K 
[IMG]previous.dwcrit.curr.0800lst.d2.png2020-06-02 05:44 49K 
[IMG]previous.bsratio.curr.0500lst.d2.png2020-06-02 05:40 49K 
[   ]blwinddir.curr.1700lst.d2.data2020-06-03 06:01 49K 
[IMG]previous.dwcrit.curr.1700lst.d2.png2020-06-02 05:58 49K 
[IMG]previous.blcwbase.curr.0500lst.d2.png2020-06-02 05:40 49K 
[IMG]previous.blcwbase.curr.0800lst.d2.png2020-06-02 05:44 49K 
[IMG]wblmaxmin.curr.0500lst.d2.png2020-06-03 05:39 49K 
[   ]bltopwinddir.curr.1700lst.d2.data2020-06-03 06:01 49K 
[IMG]wstar.curr.0500lst.d2.png2020-06-03 05:39 49K 
[   ]bltopwinddir.curr.1100lst.d2.data2020-06-03 05:49 49K 
[IMG]previous.wblmaxmin.curr.0500lst.d2.png2020-06-02 05:40 49K 
[IMG]previous.wstar.curr.0500lst.d2.png2020-06-02 05:40 49K 
[IMG]blwindshear.curr.0500lst.d2.png2020-06-03 05:39 49K 
[IMG]previous.blwindshear.curr.0500lst.d2.png2020-06-02 05:40 49K 
[IMG]cape.curr.1400lst.w2.png2020-06-03 06:37 49K 
[IMG]sfcshf.curr.0500lst.d2.png2020-06-03 05:39 49K 
[IMG]blcloudpct.curr.0500lst.d2.png2020-06-03 05:39 49K 
[IMG]sfcsunpct.curr.0500lst.d2.png2020-06-03 05:39 49K 
[IMG]previous.sfcshf.curr.0500lst.d2.png2020-06-02 05:40 49K 
[IMG]previous.blcloudpct.curr.0500lst.d2.png2020-06-02 05:40 49K 
[   ]blwinddir.curr.1100lst.d2.data2020-06-03 05:49 49K 
[IMG]previous.sfcsunpct.curr.0500lst.d2.png2020-06-02 05:40 49K 
[   ]previous.dbl.curr.1100lst.d2.data2020-06-02 05:47 49K 
[   ]sfcwinddir.curr.1100lst.d2.data2020-06-03 05:49 49K 
[   ]previous.bltopwinddir.curr.1100lst.d2.data2020-06-02 05:47 49K 
[IMG]dbl.curr.0500lst.d2.png2020-06-03 05:39 49K 
[IMG]previous.dbl.curr.0500lst.d2.png2020-06-02 05:40 49K 
[IMG]wstar_bsratio.curr.0500lst.d2.png2020-06-03 05:39 48K 
[IMG]bsratio.curr.1700lst.w2.png2020-06-03 06:53 48K 
[IMG]zblclmask.curr.0800lst.d2.png2020-06-03 05:43 48K 
[IMG]previous.wstar_bsratio.curr.0500lst.d2.png2020-06-02 05:40 48K 
[   ]wblmaxmin.curr.1700lst.w2.data2020-06-03 06:53 48K 
[   ]previous.blwinddir.curr.1100lst.d2.data2020-06-02 05:47 48K 
[   ]bltopwinddir.curr.0800lst.d2.data2020-06-03 05:43 48K 
[   ]sfcwinddir.curr.0800lst.d2.data2020-06-03 05:42 48K 
[   ]blwinddir.curr.0800lst.d2.data2020-06-03 05:42 48K 
[IMG]previous.zblclmask.curr.1700lst.d2.png2020-06-02 05:58 48K 
[IMG]previous.zsfclclmask.curr.1400lst.d2.png2020-06-02 05:55 48K 
[IMG]zblclmask.curr.0500lst.d2.png2020-06-03 05:39 48K 
[IMG]zsfclclmask.curr.0500lst.d2.png2020-06-03 05:39 48K 
[   ]blcloudpct.curr.1400lst.w2.data2020-06-03 06:36 48K 
[IMG]zsfclclmask.curr.0800lst.d2.png2020-06-03 05:43 48K 
[IMG]previous.zblclmask.curr.0500lst.d2.png2020-06-02 05:40 48K 
[IMG]previous.zsfclclmask.curr.0500lst.d2.png2020-06-02 05:40 48K 
[   ]previous.bltopvariab.curr.1700lst.d2.data2020-06-02 05:58 48K 
[   ]previous.bltopwindspd.curr.1400lst.w2.data2020-06-02 06:36 48K 
[   ]previous.sfcwinddir.curr.1100lst.d2.data2020-06-02 05:47 48K 
[IMG]previous.zsfclclmask.curr.1700lst.d2.png2020-06-02 05:58 48K 
[IMG]previous.zblclmask.curr.1400lst.d2.png2020-06-02 05:55 48K 
[IMG]previous.zblclmask.curr.1100lst.d2.png2020-06-02 05:48 48K 
[IMG]previous.zwblmaxmin.curr.1700lst.w2.png2020-06-02 06:53 47K 
[IMG]previous.zsfclclmask.curr.1100lst.d2.png2020-06-02 05:48 47K 
[   ]wstar.curr.1400lst.d2.data2020-06-03 05:54 47K 
[IMG]previous.zblclmask.curr.0800lst.d2.png2020-06-02 05:44 47K 
[IMG]previous.zsfclclmask.curr.0800lst.d2.png2020-06-02 05:44 47K 
[IMG]zsfclclmask.curr.1400lst.w2.png2020-06-03 06:37 47K 
[IMG]previous.dwcrit.curr.1100lst.w2.png2020-06-02 06:21 47K 
[   ]dwcrit.curr.1100lst.w2.data2020-06-03 06:17 47K 
[IMG]color_topo.g2.png2013-04-08 22:58 47K 
[   ]previous.wblmaxmin.curr.1700lst.w2.data2020-06-02 06:52 47K 
[IMG]zblclmask.curr.1400lst.w2.png2020-06-03 06:37 47K 
[   ]wblmaxmin.curr.1100lst.w2.data2020-06-03 06:17 47K 
[   ]previous.wblmaxmin.curr.1100lst.w2.data2020-06-02 06:20 47K 
[   ]previous.bltopwinddir.curr.0800lst.d2.data2020-06-02 05:43 46K 
[   ]previous.sfcwinddir.curr.0800lst.d2.data2020-06-02 05:43 46K 
[   ]previous.blwinddir.curr.0800lst.d2.data2020-06-02 05:43 46K 
[   ]dbl.curr.1700lst.d2.data2020-06-03 06:01 46K 
[   ]blcloudpct.curr.1100lst.w2.data2020-06-03 06:17 46K 
[   ]cape.curr.1400lst.w2.data2020-06-03 06:37 46K 
[IMG]zblclmask.curr.1100lst.w2.png2020-06-03 06:18 46K 
[IMG]previous.cape.curr.1700lst.w2.png2020-06-02 06:53 46K 
[   ]wstar.curr.1100lst.d2.data2020-06-03 05:49 46K 
[   ]previous.sfcshf.curr.0800lst.d2.data2020-06-02 05:43 46K 
[   ]previous.wstar.curr.1400lst.d2.data2020-06-02 05:54 45K 
[IMG]boxwmax.curr.1700lst.d2.png2020-06-03 06:01 45K 
[IMG]previous.boxwmax.curr.1400lst.w2.png2020-06-02 06:37 45K 
[IMG]previous.bsratio.curr.1700lst.w2.png2020-06-02 06:53 44K 
[IMG]zsfclclmask.curr.1700lst.w2.png2020-06-03 06:53 44K 
[   ]previous.blwindspd.curr.1400lst.w2.data2020-06-02 06:36 44K 
[IMG]blcwbase.curr.1100lst.w2.png2020-06-03 06:18 44K 
[IMG]blcwbase.curr.1400lst.w2.png2020-06-03 06:37 44K 
[IMG]zblclmask.curr.1700lst.w2.png2020-06-03 06:53 44K 
[IMG]blcwbase.curr.1700lst.w2.png2020-06-03 06:53 44K 
[IMG]previous.boxwmax.curr.1100lst.w2.png2020-06-02 06:21 43K 
[IMG]previous.blcwbase.curr.1700lst.w2.png2020-06-02 06:53 43K 
[   ]previous.sfcsunpct.curr.1700lst.d2.data2020-06-02 05:58 43K 
[IMG]cape.curr.1700lst.w2.png2020-06-03 06:53 43K 
[   ]bltopvariab.curr.0800lst.d2.data2020-06-03 05:43 43K 
[IMG]previous.sounding10.curr.1400lst.w2.png2020-06-02 06:37 43K 
[IMG]previous.sounding6.curr.1400lst.w2.png2020-06-02 06:37 43K 
[IMG]previous.sounding1.curr.1700lst.w2.png2020-06-02 06:53 43K 
[IMG]previous.sounding6.curr.1700lst.w2.png2020-06-02 06:53 43K 
[IMG]sounding1.curr.1400lst.w2.png2020-06-03 06:37 43K 
[IMG]previous.sounding5.curr.1700lst.w2.png2020-06-02 06:53 43K 
[IMG]sounding4.curr.1400lst.w2.png2020-06-03 06:37 43K 
[IMG]previous.sounding1.curr.1400lst.w2.png2020-06-02 06:37 43K 
[IMG]previous.sounding10.curr.1100lst.w2.png2020-06-02 06:21 43K 
[IMG]previous.sounding1.curr.1100lst.w2.png2020-06-02 06:21 43K 
[IMG]sounding8.curr.1400lst.w2.png2020-06-03 06:37 43K 
[IMG]previous.sounding3.curr.1100lst.w2.png2020-06-02 06:21 43K 
[IMG]previous.sounding10.curr.1700lst.w2.png2020-06-02 06:53 43K 
[IMG]previous.sounding4.curr.1700lst.w2.png2020-06-02 06:53 43K 
[IMG]previous.sounding7.curr.1400lst.w2.png2020-06-02 06:37 43K 
[IMG]previous.sounding4.curr.1400lst.w2.png2020-06-02 06:37 43K 
[IMG]previous.sounding6.curr.1100lst.w2.png2020-06-02 06:21 43K 
[IMG]previous.sounding2.curr.1100lst.w2.png2020-06-02 06:21 43K 
[IMG]sounding3.curr.1400lst.w2.png2020-06-03 06:37 43K 
[IMG]sounding6.curr.1700lst.w2.png2020-06-03 06:53 43K 
[IMG]sounding9.curr.1100lst.w2.png2020-06-03 06:18 43K 
[IMG]previous.sounding7.curr.1700lst.w2.png2020-06-02 06:53 43K 
[IMG]sounding1.curr.1100lst.w2.png2020-06-03 06:18 43K 
[IMG]previous.sounding3.curr.1700lst.w2.png2020-06-02 06:53 43K 
[IMG]sounding2.curr.1400lst.w2.png2020-06-03 06:37 43K 
[IMG]previous.sounding8.curr.1700lst.w2.png2020-06-02 06:53 43K 
[IMG]sounding10.curr.1700lst.w2.png2020-06-03 06:53 43K 
[IMG]previous.sounding2.curr.1400lst.w2.png2020-06-02 06:37 43K 
[IMG]sounding2.curr.1700lst.w2.png2020-06-03 06:53 43K 
[IMG]boxwmax.curr.0800lst.d2.png2020-06-03 05:43 43K 
[IMG]sounding5.curr.1400lst.w2.png2020-06-03 06:37 43K 
[IMG]previous.sounding2.curr.1700lst.w2.png2020-06-02 06:53 43K 
[IMG]sounding9.curr.1700lst.w2.png2020-06-03 06:53 43K 
[IMG]sounding6.curr.1400lst.w2.png2020-06-03 06:37 43K 
[IMG]previous.sounding3.curr.1400lst.w2.png2020-06-02 06:37 43K 
[IMG]previous.sounding5.curr.1100lst.w2.png2020-06-02 06:21 43K 
[IMG]sounding3.curr.1100lst.w2.png2020-06-03 06:18 43K 
[IMG]previous.boxwmax.curr.1700lst.w2.png2020-06-02 06:53 43K 
[IMG]sounding4.curr.1700lst.w2.png2020-06-03 06:53 43K 
[IMG]previous.sounding9.curr.1400lst.w2.png2020-06-02 06:37 43K 
[IMG]previous.sounding4.curr.1100lst.w2.png2020-06-02 06:21 43K 
[   ]sfcsunpct.curr.1700lst.d2.data2020-06-03 06:01 43K 
[IMG]sounding2.curr.1100lst.w2.png2020-06-03 06:18 43K 
[IMG]sounding7.curr.1700lst.w2.png2020-06-03 06:53 43K 
[IMG]previous.sounding7.curr.1100lst.w2.png2020-06-02 06:21 43K 
[IMG]sounding9.curr.1400lst.w2.png2020-06-03 06:37 43K 
[IMG]sounding5.curr.1100lst.w2.png2020-06-03 06:18 43K 
[IMG]sounding6.curr.1100lst.w2.png2020-06-03 06:18 43K 
[IMG]sounding8.curr.1100lst.w2.png2020-06-03 06:18 43K 
[   ]wstar.curr.1700lst.w2.data2020-06-03 06:53 42K 
[IMG]sounding7.curr.1400lst.w2.png2020-06-03 06:37 42K 
[IMG]sounding7.curr.1100lst.w2.png2020-06-03 06:18 42K 
[IMG]sounding8.curr.1700lst.w2.png2020-06-03 06:53 42K 
[IMG]previous.sounding5.curr.1400lst.w2.png2020-06-02 06:37 42K 
[IMG]sounding5.curr.1700lst.w2.png2020-06-03 06:53 42K 
[IMG]previous.sounding9.curr.1700lst.w2.png2020-06-02 06:53 42K 
[IMG]sounding3.curr.1700lst.w2.png2020-06-03 06:53 42K 
[IMG]sounding4.curr.1100lst.w2.png2020-06-03 06:18 42K 
[IMG]previous.sounding8.curr.1100lst.w2.png2020-06-02 06:21 42K 
[IMG]sounding10.curr.1400lst.w2.png2020-06-03 06:37 42K 
[IMG]sounding10.curr.1100lst.w2.png2020-06-03 06:18 42K 
[IMG]previous.sounding8.curr.1400lst.w2.png2020-06-02 06:37 42K 
[IMG]sounding1.curr.1700lst.w2.png2020-06-03 06:53 42K 
[   ]previous.sfcshf.curr.1700lst.d2.data2020-06-02 05:58 42K 
[IMG]previous.sounding9.curr.1100lst.w2.png2020-06-02 06:21 42K 
[   ]blcloudpct.curr.1700lst.w2.data2020-06-03 06:53 42K 
[IMG]previous.wstar.curr.1700lst.w2.png2020-06-02 06:53 42K 
[   ]sfcsunpct.curr.1400lst.d2.data2020-06-03 05:54 42K 
[   ]bltopwindspd.curr.1700lst.w2.data2020-06-03 06:53 42K 
[   ]sfcshf.curr.0800lst.d2.data2020-06-03 05:42 42K 
[   ]blwindspd.curr.1700lst.w2.data2020-06-03 06:53 42K 
[   ]previous.wstar.curr.1100lst.d2.data2020-06-02 05:47 41K 
[   ]previous.bltopvariab.curr.0800lst.d2.data2020-06-02 05:43 41K 
[   ]previous.sfcsunpct.curr.1400lst.d2.data2020-06-02 05:54 41K 
[   ]previous.dbl.curr.1700lst.d2.data2020-06-02 05:58 41K 
[   ]dbl.curr.0800lst.d2.data2020-06-03 05:42 41K 
[   ]previous.bltopwindspd.curr.1100lst.w2.data2020-06-02 06:20 41K 
[   ]previous.dbl.curr.0800lst.d2.data2020-06-02 05:43 41K 
[IMG]dwcrit.curr.1700lst.w2.png2020-06-03 06:53 41K 
[IMG]previous.dwcrit.curr.1700lst.w2.png2020-06-02 06:53 41K 
[   ]previous.sfcwindspd.curr.1400lst.w2.data2020-06-02 06:36 40K 
[IMG]previous.blcwbase.curr.1400lst.w2.png2020-06-02 06:37 40K 
[IMG]previous.blcwbase.curr.1100lst.w2.png2020-06-02 06:21 40K 
[IMG]previous.zsfclclmask.curr.1400lst.w2.png2020-06-02 06:37 40K 
[   ]previous.blwindshear.curr.1400lst.w2.data2020-06-02 06:36 40K 
[IMG]previous.zblclmask.curr.1700lst.w2.png2020-06-02 06:53 40K 
[IMG]previous.zsfclclmask.curr.1700lst.w2.png2020-06-02 06:53 40K 
[   ]sfcwindspd.curr.1700lst.w2.data2020-06-03 06:53 40K 
[   ]blwindspd.curr.1400lst.w2.data2020-06-03 06:36 40K 
[IMG]previous.zsfclclmask.curr.1100lst.w2.png2020-06-02 06:21 39K 
[   ]previous.blwindspd.curr.1100lst.w2.data2020-06-02 06:20 39K 
[IMG]previous.zblclmask.curr.1400lst.w2.png2020-06-02 06:37 39K 
[IMG]previous.zblclmask.curr.1100lst.w2.png2020-06-02 06:21 39K 
[   ]dwcrit.curr.1400lst.d2.data2020-06-03 05:54 39K 
[   ]sfcshf.curr.1400lst.d2.data2020-06-03 05:54 39K 
[   ]previous.bltopwindspd.curr.1700lst.w2.data2020-06-02 06:52 39K 
[   ]cape.curr.1100lst.w2.data2020-06-03 06:18 38K 
[   ]previous.sfcwindspd.curr.1700lst.w2.data2020-06-02 06:52 38K 
[   ]previous.blwindspd.curr.1700lst.w2.data2020-06-02 06:52 38K 
[   ]blwindspd.curr.1100lst.w2.data2020-06-03 06:17 38K 
[   ]sfcwindspd.curr.1400lst.w2.data2020-06-03 06:36 38K 
[   ]previous.sfcsunpct.curr.1100lst.d2.data2020-06-02 05:47 38K 
[   ]sfcsunpct.curr.1100lst.d2.data2020-06-03 05:49 38K 
[   ]previous.sfcwindspd.curr.1100lst.w2.data2020-06-02 06:20 38K 
[   ]sfcshf.curr.1700lst.d2.data2020-06-03 06:01 37K 
[   ]bltopwindspd.curr.1100lst.w2.data2020-06-03 06:17 37K 
[IMG]boxwmax.curr.1700lst.w2.png2020-06-03 06:53 37K 
[   ]previous.sfcshf.curr.1400lst.d2.data2020-06-02 05:54 37K 
[   ]bltopwindspd.curr.1400lst.w2.data2020-06-03 06:37 37K 
[   ]previous.sfcshf.curr.1100lst.d2.data2020-06-02 05:47 37K 
[   ]bsratio.curr.1100lst.w2.data2020-06-03 06:17 36K 
[   ]sfcshf.curr.1100lst.d2.data2020-06-03 05:49 36K 
[   ]previous.blcloudpct.curr.1700lst.w2.data2020-06-02 06:52 36K 
[   ]bsratio.curr.1400lst.w2.data2020-06-03 06:36 36K 
[   ]previous.blwindshear.curr.1100lst.w2.data2020-06-02 06:20 36K 
[   ]blwindshear.curr.1400lst.w2.data2020-06-03 06:37 36K 
[   ]previous.wstar.curr.1700lst.w2.data2020-06-02 06:52 35K 
[   ]previous.blcloudpct.curr.1100lst.w2.data2020-06-02 06:20 35K 
[IMG]boxwmax.curr.1100lst.w2.png2020-06-03 06:18 35K 
[   ]previous.cape.curr.1400lst.w2.data2020-06-02 06:36 35K 
[   ]previous.sfcsunpct.curr.0800lst.d2.data2020-06-02 05:43 35K 
[   ]previous.blcloudpct.curr.1400lst.w2.data2020-06-02 06:36 35K 
[   ]sfcwindspd.curr.1100lst.w2.data2020-06-03 06:17 35K 
[   ]previous.bltopwindspd.curr.1400lst.d2.data2020-06-02 05:54 35K 
[   ]blwindshear.curr.1700lst.w2.data2020-06-03 06:53 34K 
[   ]cape.curr.1700lst.w2.data2020-06-03 06:53 34K 
[   ]previous.bsratio.curr.1400lst.w2.data2020-06-02 06:36 34K 
[   ]previous.wblmaxmin.curr.1400lst.d2.data2020-06-02 05:54 34K 
[   ]previous.dwcrit.curr.1100lst.w2.data2020-06-02 06:20 34K 
[   ]previous.bsratio.curr.1100lst.w2.data2020-06-02 06:20 34K 
[IMG]boxwmax.curr.1400lst.w2.png2020-06-03 06:37 34K 
[   ]previous.cape.curr.1700lst.w2.data2020-06-02 06:52 34K 
[   ]blwindshear.curr.1100lst.w2.data2020-06-03 06:17 34K 
[   ]previous.blwindshear.curr.1700lst.w2.data2020-06-02 06:52 34K 
[   ]bsratio.curr.1700lst.w2.data2020-06-03 06:53 34K 
[   ]previous.dwcrit.curr.1700lst.w2.data2020-06-02 06:52 34K 
[   ]dwcrit.curr.1700lst.w2.data2020-06-03 06:53 34K 
[   ]previous.bsratio.curr.1700lst.w2.data2020-06-02 06:52 34K 
[   ]blcloudpct.curr.1400lst.d2.data2020-06-03 05:54 33K 
[   ]previous.cape.curr.1100lst.w2.data2020-06-02 06:20 33K 
[   ]previous.blwindspd.curr.1400lst.d2.data2020-06-02 05:54 33K 
[   ]wblmaxmin.curr.1400lst.d2.data2020-06-03 05:54 33K 
[   ]sfctemp.curr.1100lst.w2.bin2013-04-08 18:25 33K 
[   ]previous.bltopwindspd.curr.1100lst.d2.data2020-06-02 05:47 33K 
[   ]sfcsunpct.curr.0800lst.d2.data2020-06-03 05:42 33K 
[   ]previous.wblmaxmin.curr.0800lst.d2.data2020-06-02 05:43 32K 
[   ]wstar.curr.1700lst.d2.data2020-06-03 06:01 32K 
[   ]blcloudpct.curr.1700lst.d2.data2020-06-03 06:01 32K 
[   ]blcloudpct.curr.1100lst.d2.data2020-06-03 05:49 32K 
[   ]previous.blwindspd.curr.1100lst.d2.data2020-06-02 05:47 32K 
[   ]previous.sfcwindspd.curr.1400lst.d2.data2020-06-02 05:54 32K 
[IMG]color_topo.g1.png2013-04-08 22:58 32K 
[   ]wblmaxmin.curr.0800lst.d2.data2020-06-03 05:43 31K 
[   ]wblmaxmin.curr.1700lst.d2.data2020-06-03 06:01 31K 
[   ]wblmaxmin.curr.1100lst.d2.data2020-06-03 05:49 31K 
[   ]previous.wblmaxmin.curr.1700lst.d2.data2020-06-02 05:58 31K 
[   ]previous.sfcwindspd.curr.0800lst.d2.data2020-06-02 05:43 31K 
[   ]previous.wblmaxmin.curr.1100lst.d2.data2020-06-02 05:47 31K 
[   ]blcloudpct.curr.0800lst.d2.data2020-06-03 05:42 31K 
[   ]previous.sfcwindspd.curr.1100lst.d2.data2020-06-02 05:47 31K 
[   ]cape.curr.1400lst.d2.data2020-06-03 05:54 31K 
[   ]previous.bltopwindspd.curr.0800lst.d2.data2020-06-02 05:43 31K 
[   ]previous.blwindspd.curr.0800lst.d2.data2020-06-02 05:43 31K 
[   ]previous.bltopwindspd.curr.0500lst.d2.data2020-06-02 05:39 30K 
[   ]previous.blwindspd.curr.0500lst.d2.data2020-06-02 05:39 30K 
[   ]previous.sfcwindspd.curr.0500lst.d2.data2020-06-02 05:39 30K 
[   ]blwindspd.curr.1400lst.d2.data2020-06-03 05:54 30K 
[   ]previous.blwindshear.curr.1400lst.d2.data2020-06-02 05:54 30K 
[   ]bltopwindspd.curr.1100lst.d2.data2020-06-03 05:49 30K 
[   ]bltopwindspd.curr.1400lst.d2.data2020-06-03 05:54 30K 
[   ]blwindspd.curr.1100lst.d2.data2020-06-03 05:49 29K 
[   ]blwindspd.curr.1700lst.d2.data2020-06-03 06:01 29K 
[   ]previous.sfcwindspd.curr.1700lst.d2.data2020-06-02 05:58 29K 
[   ]previous.blcloudpct.curr.1700lst.d2.data2020-06-02 05:58 29K 
[   ]previous.bltopwindspd.curr.1700lst.d2.data2020-06-02 05:58 29K 
[   ]previous.blcloudpct.curr.0800lst.d2.data2020-06-02 05:43 29K 
[   ]bltopwindspd.curr.1700lst.d2.data2020-06-03 06:01 29K 
[   ]previous.blwindspd.curr.1700lst.d2.data2020-06-02 05:58 29K 
[   ]wstar.curr.0800lst.d2.data2020-06-03 05:42 29K 
[   ]sfcwindspd.curr.1400lst.d2.data2020-06-03 05:54 29K 
[   ]previous.blcloudpct.curr.1100lst.d2.data2020-06-02 05:47 29K 
[   ]previous.blcloudpct.curr.1400lst.d2.data2020-06-02 05:54 29K 
[   ]previous.wstar.curr.1700lst.d2.data2020-06-02 05:58 29K 
[   ]sfcwindspd.curr.1700lst.d2.data2020-06-03 06:01 28K 
[   ]previous.wstar.curr.0800lst.d2.data2020-06-02 05:43 28K 
[   ]cape.curr.1100lst.d2.data2020-06-03 05:50 28K 
[   ]sfcwindspd.curr.0800lst.d2.data2020-06-03 05:42 28K 
[   ]sfcwindspd.curr.1100lst.d2.data2020-06-03 05:49 28K 
[   ]blwindspd.curr.0800lst.d2.data2020-06-03 05:42 28K 
[   ]previous.dwcrit.curr.1400lst.d2.data2020-06-02 05:54 28K 
[   ]bltopwindspd.curr.0500lst.d2.data2020-06-03 05:39 28K 
[   ]blwindspd.curr.0500lst.d2.data2020-06-03 05:39 28K 
[   ]sfcwindspd.curr.0500lst.d2.data2020-06-03 05:39 28K 
[   ]cape.curr.1700lst.d2.data2020-06-03 06:01 27K 
[   ]bltopwindspd.curr.0800lst.d2.data2020-06-03 05:43 27K 
[   ]cape.curr.0800lst.d2.data2020-06-03 05:43 27K 
[   ]cape.curr.0500lst.d2.data2020-06-03 05:39 27K 
[   ]dwcrit.curr.1100lst.d2.data2020-06-03 05:49 27K 
[   ]blwindshear.curr.1400lst.d2.data2020-06-03 05:54 27K 
[   ]bsratio.curr.1400lst.d2.data2020-06-03 05:54 26K 
[   ]previous.blwindshear.curr.1100lst.d2.data2020-06-02 05:47 26K 
[   ]bsratio.curr.1100lst.d2.data2020-06-03 05:49 26K 
[   ]previous.cape.curr.1700lst.d2.data2020-06-02 05:58 26K 
[   ]previous.cape.curr.1400lst.d2.data2020-06-02 05:54 26K 
[   ]previous.cape.curr.0500lst.d2.data2020-06-02 05:39 26K 
[   ]previous.cape.curr.1100lst.d2.data2020-06-02 05:48 26K 
[   ]dwcrit.curr.1700lst.d2.data2020-06-03 06:01 26K 
[   ]blwindshear.curr.1100lst.d2.data2020-06-03 05:49 26K 
[   ]previous.bsratio.curr.1400lst.d2.data2020-06-02 05:54 26K 
[   ]previous.bsratio.curr.1100lst.d2.data2020-06-02 05:47 26K 
[   ]previous.dwcrit.curr.1100lst.d2.data2020-06-02 05:47 25K 
[   ]blwindshear.curr.1700lst.d2.data2020-06-03 06:01 25K 
[   ]bsratio.curr.1700lst.d2.data2020-06-03 06:01 25K 
[   ]previous.dwcrit.curr.1700lst.d2.data2020-06-02 05:58 25K 
[   ]previous.bsratio.curr.1700lst.d2.data2020-06-02 05:58 25K 
[   ]previous.dwcrit.curr.0800lst.d2.data2020-06-02 05:43 25K 
[   ]previous.dwcrit.curr.0500lst.d2.data2020-06-02 05:39 25K 
[   ]dwcrit.curr.0800lst.d2.data2020-06-03 05:42 25K 
[   ]dwcrit.curr.0500lst.d2.data2020-06-03 05:39 25K 
[   ]previous.bsratio.curr.0800lst.d2.data2020-06-02 05:43 25K 
[   ]previous.bsratio.curr.0500lst.d2.data2020-06-02 05:39 25K 
[   ]bsratio.curr.0800lst.d2.data2020-06-03 05:42 25K 
[   ]bsratio.curr.0500lst.d2.data2020-06-03 05:39 25K 
[   ]previous.blwindshear.curr.1700lst.d2.data2020-06-02 05:58 25K 
[   ]wstar.curr.0500lst.d2.data2020-06-03 05:39 25K 
[   ]previous.wstar.curr.0500lst.d2.data2020-06-02 05:39 25K 
[   ]wblmaxmin.curr.0500lst.d2.data2020-06-03 05:39 25K 
[   ]previous.wblmaxmin.curr.0500lst.d2.data2020-06-02 05:39 25K 
[   ]previous.cape.curr.0800lst.d2.data2020-06-02 05:43 25K 
[   ]previous.blwindshear.curr.0800lst.d2.data2020-06-02 05:43 25K 
[   ]previous.blwindshear.curr.0500lst.d2.data2020-06-02 05:39 25K 
[   ]blwindshear.curr.0800lst.d2.data2020-06-03 05:43 25K 
[   ]blwindshear.curr.0500lst.d2.data2020-06-03 05:39 25K 
[   ]sfcshf.curr.0500lst.d2.data2020-06-03 05:39 25K 
[   ]previous.sfcshf.curr.0500lst.d2.data2020-06-02 05:39 25K 
[   ]previous.blcloudpct.curr.0500lst.d2.data2020-06-02 05:39 25K 
[   ]blcloudpct.curr.0500lst.d2.data2020-06-03 05:39 25K 
[   ]previous.dbl.curr.0500lst.d2.data2020-06-02 05:39 25K 
[   ]dbl.curr.0500lst.d2.data2020-06-03 05:39 25K 
[IMG]boxwmax.curr.0500lst.d2.png2020-06-03 05:39 24K 
[IMG]previous.boxwmax.curr.0500lst.d2.png2020-06-02 05:40 22K 
[   ]sfctemp.curr.1100lst.w2.hdr2013-04-08 18:25 110  
[TXT]valid.curr.w2.txt2020-06-03 06:53 16  
[TXT]valid.curr.d2.txt2020-06-03 06:02 16  
[TXT]valid.curr.1700lst.w2.txt2020-06-03 06:53 11  
[TXT]valid.curr.1700lst.d2.txt2020-06-03 06:02 11  
[TXT]valid.curr.1400lst.w2.txt2020-06-03 06:38 11  
[TXT]valid.curr.1400lst.d2.txt2020-06-03 05:55 11  
[TXT]valid.curr.1100lst.w2.txt2020-06-03 06:18 11  
[TXT]valid.curr.1100lst.d2.txt2020-06-03 05:50 11  
[TXT]valid.curr.0800lst.d2.txt2020-06-03 05:43 11  
[TXT]valid.curr.0500lst.d2.txt2020-06-03 05:39 11  

Apache/2.4.38 (Debian) Server at rasp.org.za Port 80